<?xml version="1.0" encoding="UTF-8" standalone="yes"?>
<gpx
 xmlns="http://www.topografix.com/GPX/1/1"
 creator="OziExplorer Version 3956f - http://www.oziexplorer.com"
 version="1.1"
 xmlns:xsi="http://www.w3.org/2001/XMLSchema-instance"
 xsi:schemaLocation="http://www.topografix.com/GPX/1/1 http://www.topografix.com/GPX/1/1/gpx.xsd">
<metadata>
 <time>2021-07-21T07:37:03Z</time>
 <bounds minlat="31.773640" minlon="34.910820" maxlat="31.825050" maxlon="35.007440"/>
</metadata>
<trk>
 <name>NahsonPsalimBurma32km</name>
 <desc>NahsonPsalimBurma32km</desc>
<trkseg>
<trkpt lat="31.8213900" lon="34.9153600">
<ele>118.110001</ele>
<time>2021-07-21T10:37:03.854Z</time>
</trkpt>
<trkpt lat="31.8213900" lon="34.9153600">
<ele>118.110001</ele>
<time>2021-07-21T10:37:03.854Z</time>
</trkpt>
<trkpt lat="31.8214000" lon="34.9153700">
<ele>118.019997</ele>
<time>2021-07-21T10:37:03.854Z</time>
</trkpt>
<trkpt lat="31.8214000" lon="34.9153700">
<ele>118.019997</ele>
<time>2021-07-21T10:37:03.854Z</time>
</trkpt>
<trkpt lat="31.8214000" lon="34.9153700">
<ele>118.019997</ele>
<time>2021-07-21T10:37:03.854Z</time>
</trkpt>
<trkpt lat="31.8214300" lon="34.9154100">
<ele>117.639999</ele>
<time>2021-07-21T10:37:03.854Z</time>
</trkpt>
<trkpt lat="31.8214600" lon="34.9154900">
<ele>116.900002</ele>
<time>2021-07-21T10:37:03.854Z</time>
</trkpt>
<trkpt lat="31.8214600" lon="34.9156300">
<ele>115.860001</ele>
<time>2021-07-21T10:37:03.854Z</time>
</trkpt>
<trkpt lat="31.8214600" lon="34.9157300">
<ele>115.320000</ele>
<time>2021-07-21T10:37:03.854Z</time>
</trkpt>
<trkpt lat="31.8215000" lon="34.9159300">
<ele>115.549995</ele>
<time>2021-07-21T10:37:03.854Z</time>
</trkpt>
<trkpt lat="31.8214300" lon="34.9159200">
<ele>114.760002</ele>
<time>2021-07-21T10:37:03.854Z</time>
</trkpt>
<trkpt lat="31.8213300" lon="34.9159800">
<ele>114.959999</ele>
<time>2021-07-21T10:37:03.854Z</time>
</trkpt>
<trkpt lat="31.8212100" lon="34.9160700">
<ele>116.589996</ele>
<time>2021-07-21T10:37:03.854Z</time>
</trkpt>
<trkpt lat="31.8211300" lon="34.9161600">
<ele>117.879997</ele>
<time>2021-07-21T10:37:03.854Z</time>
</trkpt>
<trkpt lat="31.8210700" lon="34.9162800">
<ele>118.210007</ele>
<time>2021-07-21T10:37:03.854Z</time>
</trkpt>
<trkpt lat="31.8210300" lon="34.9164300">
<ele>119.459999</ele>
<time>2021-07-21T10:37:03.854Z</time>
</trkpt>
<trkpt lat="31.8209800" lon="34.9165400">
<ele>120.879997</ele>
<time>2021-07-21T10:37:03.854Z</time>
</trkpt>
<trkpt lat="31.8209200" lon="34.9165900">
<ele>120.919998</ele>
<time>2021-07-21T10:37:03.854Z</time>
</trkpt>
<trkpt lat="31.8203300" lon="34.9169100">
<ele>125.080002</ele>
<time>2021-07-21T10:37:03.854Z</time>
</trkpt>
<trkpt lat="31.8199700" lon="34.9170400">
<ele>127.849998</ele>
<time>2021-07-21T10:37:03.854Z</time>
</trkpt>
<trkpt lat="31.8198300" lon="34.9170700">
<ele>127.110001</ele>
<time>2021-07-21T10:37:03.854Z</time>
</trkpt>
<trkpt lat="31.8195200" lon="34.9170600">
<ele>123.669998</ele>
<time>2021-07-21T10:37:03.854Z</time>
</trkpt>
<trkpt lat="31.8194600" lon="34.9170300">
<ele>122.920006</ele>
<time>2021-07-21T10:37:03.854Z</time>
</trkpt>
<trkpt lat="31.8194100" lon="34.9169800">
<ele>122.860001</ele>
<time>2021-07-21T10:37:03.854Z</time>
</trkpt>
<trkpt lat="31.8193900" lon="34.9169300">
<ele>123.169998</ele>
<time>2021-07-21T10:37:03.854Z</time>
</trkpt>
<trkpt lat="31.8193900" lon="34.9169300">
<ele>123.169998</ele>
<time>2021-07-21T10:37:03.855Z</time>
</trkpt>
<trkpt lat="31.8193900" lon="34.9169300">
<ele>123.169998</ele>
<time>2021-07-21T10:37:03.855Z</time>
</trkpt>
<trkpt lat="31.8194100" lon="34.9169800">
<ele>122.860001</ele>
<time>2021-07-21T10:37:03.855Z</time>
</trkpt>
<trkpt lat="31.8194000" lon="34.9173400">
<ele>121.420006</ele>
<time>2021-07-21T10:37:03.855Z</time>
</trkpt>
<trkpt lat="31.8194600" lon="34.9177000">
<ele>120.449997</ele>
<time>2021-07-21T10:37:03.855Z</time>
</trkpt>
<trkpt lat="31.8194500" lon="34.9178300">
<ele>119.680000</ele>
<time>2021-07-21T10:37:03.855Z</time>
</trkpt>
<trkpt lat="31.8194200" lon="34.9178900">
<ele>119.180000</ele>
<time>2021-07-21T10:37:03.855Z</time>
</trkpt>
<trkpt lat="31.8194100" lon="34.9179000">
<ele>119.110001</ele>
<time>2021-07-21T10:37:03.855Z</time>
</trkpt>
<trkpt lat="31.8193300" lon="34.9179800">
<ele>118.729996</ele>
<time>2021-07-21T10:37:03.855Z</time>
</trkpt>
<trkpt lat="31.8191300" lon="34.9181200">
<ele>118.870003</ele>
<time>2021-07-21T10:37:03.855Z</time>
</trkpt>
<trkpt lat="31.8188500" lon="34.9183400">
<ele>117.830002</ele>
<time>2021-07-21T10:37:03.855Z</time>
</trkpt>
<trkpt lat="31.8187000" lon="34.9184600">
<ele>118.299995</ele>
<time>2021-07-21T10:37:03.855Z</time>
</trkpt>
<trkpt lat="31.8186600" lon="34.9184700">
<ele>118.000000</ele>
<time>2021-07-21T10:37:03.855Z</time>
</trkpt>
<trkpt lat="31.8185000" lon="34.9185400">
<ele>117.529999</ele>
<time>2021-07-21T10:37:03.855Z</time>
</trkpt>
<trkpt lat="31.8182400" lon="34.9186000">
<ele>116.260002</ele>
<time>2021-07-21T10:37:03.855Z</time>
</trkpt>
<trkpt lat="31.8178100" lon="34.9187400">
<ele>116.080002</ele>
<time>2021-07-21T10:37:03.856Z</time>
</trkpt>
<trkpt lat="31.8181100" lon="34.9188600">
<ele>120.769997</ele>
<time>2021-07-21T10:37:03.856Z</time>
</trkpt>
<trkpt lat="31.8185600" lon="34.9191500">
<ele>131.949997</ele>
<time>2021-07-21T10:37:03.856Z</time>
</trkpt>
<trkpt lat="31.8190000" lon="34.9196200">
<ele>131.259995</ele>
<time>2021-07-21T10:37:03.856Z</time>
</trkpt>
<trkpt lat="31.8194900" lon="34.9202500">
<ele>135.389999</ele>
<time>2021-07-21T10:37:03.856Z</time>
</trkpt>
<trkpt lat="31.8200000" lon="34.9209600">
<ele>131.180008</ele>
<time>2021-07-21T10:37:03.856Z</time>
</trkpt>
<trkpt lat="31.8200000" lon="34.9209600">
<ele>131.180008</ele>
<time>2021-07-21T10:37:03.856Z</time>
</trkpt>
<trkpt lat="31.8200000" lon="34.9209600">
<ele>131.180008</ele>
<time>2021-07-21T10:37:03.856Z</time>
</trkpt>
<trkpt lat="31.8200300" lon="34.9210000">
<ele>131.099991</ele>
<time>2021-07-21T10:37:03.856Z</time>
</trkpt>
<trkpt lat="31.8204900" lon="34.9217500">
<ele>131.050003</ele>
<time>2021-07-21T10:37:03.856Z</time>
</trkpt>
<trkpt lat="31.8211800" lon="34.9228400">
<ele>133.259995</ele>
<time>2021-07-21T10:37:03.856Z</time>
</trkpt>
<trkpt lat="31.8215200" lon="34.9234300">
<ele>130.649994</ele>
<time>2021-07-21T10:37:03.856Z</time>
</trkpt>
<trkpt lat="31.8215500" lon="34.9236700">
<ele>129.909988</ele>
<time>2021-07-21T10:37:03.856Z</time>
</trkpt>
<trkpt lat="31.8216200" lon="34.9238500">
<ele>129.860001</ele>
<time>2021-07-21T10:37:03.856Z</time>
</trkpt>
<trkpt lat="31.8218300" lon="34.9242800">
<ele>124.719994</ele>
<time>2021-07-21T10:37:03.856Z</time>
</trkpt>
<trkpt lat="31.8218700" lon="34.9243600">
<ele>123.010002</ele>
<time>2021-07-21T10:37:03.856Z</time>
</trkpt>
<trkpt lat="31.8218500" lon="34.9245600">
<ele>121.070000</ele>
<time>2021-07-21T10:37:03.856Z</time>
</trkpt>
<trkpt lat="31.8218500" lon="34.9246300">
<ele>120.899994</ele>
<time>2021-07-21T10:37:03.856Z</time>
</trkpt>
<trkpt lat="31.8218500" lon="34.9247300">
<ele>120.729996</ele>
<time>2021-07-21T10:37:03.856Z</time>
</trkpt>
<trkpt lat="31.8220500" lon="34.9250800">
<ele>122.470001</ele>
<time>2021-07-21T10:37:03.856Z</time>
</trkpt>
<trkpt lat="31.8223900" lon="34.9255100">
<ele>121.420006</ele>
<time>2021-07-21T10:37:03.856Z</time>
</trkpt>
<trkpt lat="31.8226700" lon="34.9258900">
<ele>120.680000</ele>
<time>2021-07-21T10:37:03.856Z</time>
</trkpt>
<trkpt lat="31.8228200" lon="34.9261100">
<ele>117.549995</ele>
<time>2021-07-21T10:37:03.856Z</time>
</trkpt>
<trkpt lat="31.8228700" lon="34.9261800">
<ele>117.910004</ele>
<time>2021-07-21T10:37:03.856Z</time>
</trkpt>
<trkpt lat="31.8232000" lon="34.9268300">
<ele>125.700005</ele>
<time>2021-07-21T10:37:03.856Z</time>
</trkpt>
<trkpt lat="31.8236900" lon="34.9279600">
<ele>125.339996</ele>
<time>2021-07-21T10:37:03.856Z</time>
</trkpt>
<trkpt lat="31.8238500" lon="34.9285100">
<ele>128.130005</ele>
<time>2021-07-21T10:37:03.856Z</time>
</trkpt>
<trkpt lat="31.8240000" lon="34.9289500">
<ele>131.930008</ele>
<time>2021-07-21T10:37:03.856Z</time>
</trkpt>
<trkpt lat="31.8242400" lon="34.9294600">
<ele>130.119995</ele>
<time>2021-07-21T10:37:03.856Z</time>
</trkpt>
<trkpt lat="31.8245200" lon="34.9299700">
<ele>124.320000</ele>
<time>2021-07-21T10:37:03.857Z</time>
</trkpt>
<trkpt lat="31.8246900" lon="34.9302100">
<ele>123.419998</ele>
<time>2021-07-21T10:37:03.857Z</time>
</trkpt>
<trkpt lat="31.8247600" lon="34.9302400">
<ele>123.270004</ele>
<time>2021-07-21T10:37:03.857Z</time>
</trkpt>
<trkpt lat="31.8248300" lon="34.9302600">
<ele>123.449997</ele>
<time>2021-07-21T10:37:03.857Z</time>
</trkpt>
<trkpt lat="31.8248100" lon="34.9303700">
<ele>123.540001</ele>
<time>2021-07-21T10:37:03.857Z</time>
</trkpt>
<trkpt lat="31.8248200" lon="34.9305300">
<ele>123.939995</ele>
<time>2021-07-21T10:37:03.857Z</time>
</trkpt>
<trkpt lat="31.8248800" lon="34.9308500">
<ele>124.480003</ele>
<time>2021-07-21T10:37:03.857Z</time>
</trkpt>
<trkpt lat="31.8249300" lon="34.9308600">
<ele>124.630005</ele>
<time>2021-07-21T10:37:03.857Z</time>
</trkpt>
<trkpt lat="31.8249700" lon="34.9308800">
<ele>124.709999</ele>
<time>2021-07-21T10:37:03.857Z</time>
</trkpt>
<trkpt lat="31.8250100" lon="34.9309100">
<ele>124.620003</ele>
<time>2021-07-21T10:37:03.857Z</time>
</trkpt>
<trkpt lat="31.8250300" lon="34.9309500">
<ele>124.330002</ele>
<time>2021-07-21T10:37:03.857Z</time>
</trkpt>
<trkpt lat="31.8250500" lon="34.9310000">
<ele>124.109993</ele>
<time>2021-07-21T10:37:03.857Z</time>
</trkpt>
<trkpt lat="31.8250500" lon="34.9310500">
<ele>124.059998</ele>
<time>2021-07-21T10:37:03.857Z</time>
</trkpt>
<trkpt lat="31.8250500" lon="34.9311000">
<ele>124.010002</ele>
<time>2021-07-21T10:37:03.857Z</time>
</trkpt>
<trkpt lat="31.8250300" lon="34.9311500">
<ele>124.259995</ele>
<time>2021-07-21T10:37:03.857Z</time>
</trkpt>
<trkpt lat="31.8249900" lon="34.9312000">
<ele>124.529999</ele>
<time>2021-07-21T10:37:03.857Z</time>
</trkpt>
<trkpt lat="31.8249400" lon="34.9312300">
<ele>124.150002</ele>
<time>2021-07-21T10:37:03.857Z</time>
</trkpt>
<trkpt lat="31.8247200" lon="34.9313100">
<ele>121.290001</ele>
<time>2021-07-21T10:37:03.857Z</time>
</trkpt>
<trkpt lat="31.8241500" lon="34.9315800">
<ele>122.770004</ele>
<time>2021-07-21T10:37:03.857Z</time>
</trkpt>
<trkpt lat="31.8239900" lon="34.9316500">
<ele>123.610001</ele>
<time>2021-07-21T10:37:03.857Z</time>
</trkpt>
<trkpt lat="31.8236700" lon="34.9318200">
<ele>122.419998</ele>
<time>2021-07-21T10:37:03.857Z</time>
</trkpt>
<trkpt lat="31.8229900" lon="34.9322300">
<ele>116.949997</ele>
<time>2021-07-21T10:37:03.857Z</time>
</trkpt>
<trkpt lat="31.8226500" lon="34.9312200">
<ele>121.410004</ele>
<time>2021-07-21T10:37:03.857Z</time>
</trkpt>
<trkpt lat="31.8225100" lon="34.9309200">
<ele>121.430000</ele>
<time>2021-07-21T10:37:03.857Z</time>
</trkpt>
<trkpt lat="31.8224300" lon="34.9307800">
<ele>121.949997</ele>
<time>2021-07-21T10:37:03.857Z</time>
</trkpt>
<trkpt lat="31.8224300" lon="34.9307800">
<ele>121.949997</ele>
<time>2021-07-21T10:37:03.857Z</time>
</trkpt>
<trkpt lat="31.8224300" lon="34.9307800">
<ele>121.949997</ele>
<time>2021-07-21T10:37:03.858Z</time>
</trkpt>
<trkpt lat="31.8219500" lon="34.9299800">
<ele>125.009995</ele>
<time>2021-07-21T10:37:03.858Z</time>
</trkpt>
<trkpt lat="31.8217000" lon="34.9295700">
<ele>126.220001</ele>
<time>2021-07-21T10:37:03.858Z</time>
</trkpt>
<trkpt lat="31.8215900" lon="34.9293800">
<ele>127.230003</ele>
<time>2021-07-21T10:37:03.858Z</time>
</trkpt>
<trkpt lat="31.8210700" lon="34.9286800">
<ele>130.179993</ele>
<time>2021-07-21T10:37:03.858Z</time>
</trkpt>
<trkpt lat="31.8205800" lon="34.9281600">
<ele>132.680008</ele>
<time>2021-07-21T10:37:03.858Z</time>
</trkpt>
<trkpt lat="31.8204900" lon="34.9280800">
<ele>133.900009</ele>
<time>2021-07-21T10:37:03.858Z</time>
</trkpt>
<trkpt lat="31.8204200" lon="34.9280400">
<ele>134.949997</ele>
<time>2021-07-21T10:37:03.858Z</time>
</trkpt>
<trkpt lat="31.8203200" lon="34.9279900">
<ele>136.229996</ele>
<time>2021-07-21T10:37:03.858Z</time>
</trkpt>
<trkpt lat="31.8201400" lon="34.9279900">
<ele>132.680008</ele>
<time>2021-07-21T10:37:03.858Z</time>
</trkpt>
<trkpt lat="31.8199300" lon="34.9280400">
<ele>127.400002</ele>
<time>2021-07-21T10:37:03.858Z</time>
</trkpt>
<trkpt lat="31.8198200" lon="34.9280400">
<ele>125.070000</ele>
<time>2021-07-21T10:37:03.858Z</time>
</trkpt>
<trkpt lat="31.8197100" lon="34.9280100">
<ele>122.980003</ele>
<time>2021-07-21T10:37:03.858Z</time>
</trkpt>
<trkpt lat="31.8193200" lon="34.9276200">
<ele>120.940002</ele>
<time>2021-07-21T10:37:03.858Z</time>
</trkpt>
<trkpt lat="31.8189900" lon="34.9273700">
<ele>119.029999</ele>
<time>2021-07-21T10:37:03.858Z</time>
</trkpt>
<trkpt lat="31.8187800" lon="34.9272800">
<ele>118.789993</ele>
<time>2021-07-21T10:37:03.858Z</time>
</trkpt>
<trkpt lat="31.8186200" lon="34.9271700">
<ele>119.180000</ele>
<time>2021-07-21T10:37:03.858Z</time>
</trkpt>
<trkpt lat="31.8185100" lon="34.9270300">
<ele>119.330002</ele>
<time>2021-07-21T10:37:03.858Z</time>
</trkpt>
<trkpt lat="31.8182400" lon="34.9266100">
<ele>118.670006</ele>
<time>2021-07-21T10:37:03.858Z</time>
</trkpt>
<trkpt lat="31.8179900" lon="34.9262900">
<ele>118.830002</ele>
<time>2021-07-21T10:37:03.858Z</time>
</trkpt>
<trkpt lat="31.8177100" lon="34.9257100">
<ele>122.190002</ele>
<time>2021-07-21T10:37:03.858Z</time>
</trkpt>
<trkpt lat="31.8175400" lon="34.9253400">
<ele>125.250000</ele>
<time>2021-07-21T10:37:03.858Z</time>
</trkpt>
<trkpt lat="31.8173500" lon="34.9249700">
<ele>125.200005</ele>
<time>2021-07-21T10:37:03.858Z</time>
</trkpt>
<trkpt lat="31.8171600" lon="34.9245900">
<ele>125.169998</ele>
<time>2021-07-21T10:37:03.858Z</time>
</trkpt>
<trkpt lat="31.8168500" lon="34.9238600">
<ele>123.919998</ele>
<time>2021-07-21T10:37:03.858Z</time>
</trkpt>
<trkpt lat="31.8168400" lon="34.9238400">
<ele>123.969994</ele>
<time>2021-07-21T10:37:03.858Z</time>
</trkpt>
<trkpt lat="31.8168400" lon="34.9238400">
<ele>123.969994</ele>
<time>2021-07-21T10:37:03.858Z</time>
</trkpt>
<trkpt lat="31.8168400" lon="34.9238400">
<ele>123.969994</ele>
<time>2021-07-21T10:37:03.858Z</time>
</trkpt>
<trkpt lat="31.8165800" lon="34.9235400">
<ele>127.589996</ele>
<time>2021-07-21T10:37:03.859Z</time>
</trkpt>
<trkpt lat="31.8162700" lon="34.9232100">
<ele>131.699997</ele>
<time>2021-07-21T10:37:03.859Z</time>
</trkpt>
<trkpt lat="31.8158400" lon="34.9228700">
<ele>120.159996</ele>
<time>2021-07-21T10:37:03.859Z</time>
</trkpt>
<trkpt lat="31.8155000" lon="34.9222200">
<ele>119.199997</ele>
<time>2021-07-21T10:37:03.859Z</time>
</trkpt>
<trkpt lat="31.8151500" lon="34.9217300">
<ele>119.410004</ele>
<time>2021-07-21T10:37:03.859Z</time>
</trkpt>
<trkpt lat="31.8149400" lon="34.9214000">
<ele>114.449997</ele>
<time>2021-07-21T10:37:03.859Z</time>
</trkpt>
<trkpt lat="31.8148300" lon="34.9211800">
<ele>111.660004</ele>
<time>2021-07-21T10:37:03.859Z</time>
</trkpt>
<trkpt lat="31.8148400" lon="34.9208300">
<ele>108.820000</ele>
<time>2021-07-21T10:37:03.859Z</time>
</trkpt>
<trkpt lat="31.8149000" lon="34.9205500">
<ele>105.730003</ele>
<time>2021-07-21T10:37:03.859Z</time>
</trkpt>
<trkpt lat="31.8150100" lon="34.9203100">
<ele>105.919998</ele>
<time>2021-07-21T10:37:03.859Z</time>
</trkpt>
<trkpt lat="31.8151600" lon="34.9200600">
<ele>108.930000</ele>
<time>2021-07-21T10:37:03.859Z</time>
</trkpt>
<trkpt lat="31.8150300" lon="34.9199900">
<ele>109.250000</ele>
<time>2021-07-21T10:37:03.859Z</time>
</trkpt>
<trkpt lat="31.8149800" lon="34.9198500">
<ele>110.900002</ele>
<time>2021-07-21T10:37:03.859Z</time>
</trkpt>
<trkpt lat="31.8150000" lon="34.9196300">
<ele>113.660004</ele>
<time>2021-07-21T10:37:03.859Z</time>
</trkpt>
<trkpt lat="31.8148500" lon="34.9195800">
<ele>111.050003</ele>
<time>2021-07-21T10:37:03.859Z</time>
</trkpt>
<trkpt lat="31.8149500" lon="34.9191100">
<ele>112.940002</ele>
<time>2021-07-21T10:37:03.859Z</time>
</trkpt>
<trkpt lat="31.8150100" lon="34.9188600">
<ele>109.559998</ele>
<time>2021-07-21T10:37:03.859Z</time>
</trkpt>
<trkpt lat="31.8150200" lon="34.9188000">
<ele>108.590004</ele>
<time>2021-07-21T10:37:03.859Z</time>
</trkpt>
<trkpt lat="31.8150000" lon="34.9184700">
<ele>103.480003</ele>
<time>2021-07-21T10:37:03.859Z</time>
</trkpt>
<trkpt lat="31.8149600" lon="34.9183400">
<ele>101.779999</ele>
<time>2021-07-21T10:37:03.859Z</time>
</trkpt>
<trkpt lat="31.8149100" lon="34.9178400">
<ele>100.680000</ele>
<time>2021-07-21T10:37:03.859Z</time>
</trkpt>
<trkpt lat="31.8148600" lon="34.9175900">
<ele>101.510002</ele>
<time>2021-07-21T10:37:03.859Z</time>
</trkpt>
<trkpt lat="31.8148300" lon="34.9174200">
<ele>103.260002</ele>
<time>2021-07-21T10:37:03.859Z</time>
</trkpt>
<trkpt lat="31.8148400" lon="34.9170400">
<ele>109.230003</ele>
<time>2021-07-21T10:37:03.859Z</time>
</trkpt>
<trkpt lat="31.8148500" lon="34.9169100">
<ele>111.149994</ele>
<time>2021-07-21T10:37:03.859Z</time>
</trkpt>
<trkpt lat="31.8148700" lon="34.9166800">
<ele>113.480003</ele>
<time>2021-07-21T10:37:03.860Z</time>
</trkpt>
<trkpt lat="31.8147900" lon="34.9164100">
<ele>114.829994</ele>
<time>2021-07-21T10:37:03.860Z</time>
</trkpt>
<trkpt lat="31.8146200" lon="34.9160600">
<ele>115.450005</ele>
<time>2021-07-21T10:37:03.860Z</time>
</trkpt>
<trkpt lat="31.8143700" lon="34.9155500">
<ele>113.729996</ele>
<time>2021-07-21T10:37:03.860Z</time>
</trkpt>
<trkpt lat="31.8143700" lon="34.9155500">
<ele>113.729996</ele>
<time>2021-07-21T10:37:03.860Z</time>
</trkpt>
<trkpt lat="31.8143700" lon="34.9155500">
<ele>113.729996</ele>
<time>2021-07-21T10:37:03.860Z</time>
</trkpt>
<trkpt lat="31.8141700" lon="34.9151200">
<ele>113.010002</ele>
<time>2021-07-21T10:37:03.860Z</time>
</trkpt>
<trkpt lat="31.8139600" lon="34.9147300">
<ele>112.260002</ele>
<time>2021-07-21T10:37:03.860Z</time>
</trkpt>
<trkpt lat="31.8136000" lon="34.9140600">
<ele>113.370003</ele>
<time>2021-07-21T10:37:03.860Z</time>
</trkpt>
<trkpt lat="31.8131200" lon="34.9131500">
<ele>110.310005</ele>
<time>2021-07-21T10:37:03.860Z</time>
</trkpt>
<trkpt lat="31.8127000" lon="34.9119500">
<ele>105.730003</ele>
<time>2021-07-21T10:37:03.860Z</time>
</trkpt>
<trkpt lat="31.8124500" lon="34.9110200">
<ele>104.640007</ele>
<time>2021-07-21T10:37:03.860Z</time>
</trkpt>
<trkpt lat="31.8122600" lon="34.9108500">
<ele>103.270004</ele>
<time>2021-07-21T10:37:03.860Z</time>
</trkpt>
<trkpt lat="31.8117600" lon="34.9108200">
<ele>99.040001</ele>
<time>2021-07-21T10:37:03.860Z</time>
</trkpt>
<trkpt lat="31.8116300" lon="34.9108800">
<ele>98.509995</ele>
<time>2021-07-21T10:37:03.860Z</time>
</trkpt>
<trkpt lat="31.8115600" lon="34.9110700">
<ele>99.160004</ele>
<time>2021-07-21T10:37:03.861Z</time>
</trkpt>
<trkpt lat="31.8115300" lon="34.9111100">
<ele>99.020004</ele>
<time>2021-07-21T10:37:03.861Z</time>
</trkpt>
<trkpt lat="31.8114200" lon="34.9112300">
<ele>97.889999</ele>
<time>2021-07-21T10:37:03.861Z</time>
</trkpt>
<trkpt lat="31.8113900" lon="34.9112400">
<ele>97.549995</ele>
<time>2021-07-21T10:37:03.861Z</time>
</trkpt>
<trkpt lat="31.8112800" lon="34.9112100">
<ele>97.250000</ele>
<time>2021-07-21T10:37:03.861Z</time>
</trkpt>
<trkpt lat="31.8111100" lon="34.9112600">
<ele>96.459999</ele>
<time>2021-07-21T10:37:03.861Z</time>
</trkpt>
<trkpt lat="31.8109400" lon="34.9113300">
<ele>94.399994</ele>
<time>2021-07-21T10:37:03.861Z</time>
</trkpt>
<trkpt lat="31.8107900" lon="34.9113400">
<ele>93.179993</ele>
<time>2021-07-21T10:37:03.861Z</time>
</trkpt>
<trkpt lat="31.8105800" lon="34.9114000">
<ele>93.179993</ele>
<time>2021-07-21T10:37:03.861Z</time>
</trkpt>
<trkpt lat="31.8104400" lon="34.9114600">
<ele>99.360001</ele>
<time>2021-07-21T10:37:03.861Z</time>
</trkpt>
<trkpt lat="31.8103700" lon="34.9114600">
<ele>102.120003</ele>
<time>2021-07-21T10:37:03.861Z</time>
</trkpt>
<trkpt lat="31.8103100" lon="34.9115000">
<ele>104.989998</ele>
<time>2021-07-21T10:37:03.861Z</time>
</trkpt>
<trkpt lat="31.8095800" lon="34.9117800">
<ele>113.269997</ele>
<time>2021-07-21T10:37:03.861Z</time>
</trkpt>
<trkpt lat="31.8095300" lon="34.9118100">
<ele>114.309998</ele>
<time>2021-07-21T10:37:03.861Z</time>
</trkpt>
<trkpt lat="31.8095300" lon="34.9118100">
<ele>114.309998</ele>
<time>2021-07-21T10:37:03.861Z</time>
</trkpt>
<trkpt lat="31.8095300" lon="34.9118100">
<ele>114.309998</ele>
<time>2021-07-21T10:37:03.861Z</time>
</trkpt>
<trkpt lat="31.8093800" lon="34.9118800">
<ele>116.290001</ele>
<time>2021-07-21T10:37:03.861Z</time>
</trkpt>
<trkpt lat="31.8087900" lon="34.9122900">
<ele>118.090004</ele>
<time>2021-07-21T10:37:03.861Z</time>
</trkpt>
<trkpt lat="31.8086800" lon="34.9123300">
<ele>118.919998</ele>
<time>2021-07-21T10:37:03.861Z</time>
</trkpt>
<trkpt lat="31.8085900" lon="34.9124000">
<ele>120.180000</ele>
<time>2021-07-21T10:37:03.861Z</time>
</trkpt>
<trkpt lat="31.8081200" lon="34.9126900">
<ele>127.830002</ele>
<time>2021-07-21T10:37:03.861Z</time>
</trkpt>
<trkpt lat="31.8078700" lon="34.9127800">
<ele>128.360001</ele>
<time>2021-07-21T10:37:03.861Z</time>
</trkpt>
<trkpt lat="31.8076500" lon="34.9129900">
<ele>129.480011</ele>
<time>2021-07-21T10:37:03.861Z</time>
</trkpt>
<trkpt lat="31.8074800" lon="34.9132100">
<ele>129.720001</ele>
<time>2021-07-21T10:37:03.861Z</time>
</trkpt>
<trkpt lat="31.8073900" lon="34.9132900">
<ele>128.649994</ele>
<time>2021-07-21T10:37:03.861Z</time>
</trkpt>
<trkpt lat="31.8072000" lon="34.9134200">
<ele>126.839996</ele>
<time>2021-07-21T10:37:03.862Z</time>
</trkpt>
<trkpt lat="31.8071200" lon="34.9135100">
<ele>126.970001</ele>
<time>2021-07-21T10:37:03.862Z</time>
</trkpt>
<trkpt lat="31.8070400" lon="34.9136500">
<ele>126.610001</ele>
<time>2021-07-21T10:37:03.862Z</time>
</trkpt>
<trkpt lat="31.8069900" lon="34.9137100">
<ele>126.310005</ele>
<time>2021-07-21T10:37:03.862Z</time>
</trkpt>
<trkpt lat="31.8068800" lon="34.9137500">
<ele>124.719994</ele>
<time>2021-07-21T10:37:03.862Z</time>
</trkpt>
<trkpt lat="31.8065700" lon="34.9139800">
<ele>120.209999</ele>
<time>2021-07-21T10:37:03.862Z</time>
</trkpt>
<trkpt lat="31.8065200" lon="34.9140400">
<ele>120.589996</ele>
<time>2021-07-21T10:37:03.862Z</time>
</trkpt>
<trkpt lat="31.8064900" lon="34.9141200">
<ele>121.250000</ele>
<time>2021-07-21T10:37:03.862Z</time>
</trkpt>
<trkpt lat="31.8063800" lon="34.9141400">
<ele>121.750000</ele>
<time>2021-07-21T10:37:03.862Z</time>
</trkpt>
<trkpt lat="31.8063200" lon="34.9141300">
<ele>121.949997</ele>
<time>2021-07-21T10:37:03.862Z</time>
</trkpt>
<trkpt lat="31.8061000" lon="34.9141800">
<ele>122.950005</ele>
<time>2021-07-21T10:37:03.862Z</time>
</trkpt>
<trkpt lat="31.8056300" lon="34.9143600">
<ele>121.130005</ele>
<time>2021-07-21T10:37:03.862Z</time>
</trkpt>
<trkpt lat="31.8053400" lon="34.9144100">
<ele>119.610001</ele>
<time>2021-07-21T10:37:03.862Z</time>
</trkpt>
<trkpt lat="31.8052100" lon="34.9144800">
<ele>119.209999</ele>
<time>2021-07-21T10:37:03.862Z</time>
</trkpt>
<trkpt lat="31.8049100" lon="34.9146100">
<ele>120.180000</ele>
<time>2021-07-21T10:37:03.862Z</time>
</trkpt>
<trkpt lat="31.8047800" lon="34.9146800">
<ele>120.860001</ele>
<time>2021-07-21T10:37:03.862Z</time>
</trkpt>
<trkpt lat="31.8045400" lon="34.9147500">
<ele>121.760002</ele>
<time>2021-07-21T10:37:03.862Z</time>
</trkpt>
<trkpt lat="31.8043000" lon="34.9148600">
<ele>122.500000</ele>
<time>2021-07-21T10:37:03.862Z</time>
</trkpt>
<trkpt lat="31.8042000" lon="34.9148800">
<ele>122.449997</ele>
<time>2021-07-21T10:37:03.862Z</time>
</trkpt>
<trkpt lat="31.8040900" lon="34.9148600">
<ele>122.639999</ele>
<time>2021-07-21T10:37:03.862Z</time>
</trkpt>
<trkpt lat="31.8040200" lon="34.9148300">
<ele>122.820000</ele>
<time>2021-07-21T10:37:03.862Z</time>
</trkpt>
<trkpt lat="31.8037700" lon="34.9146800">
<ele>122.570000</ele>
<time>2021-07-21T10:37:03.862Z</time>
</trkpt>
<trkpt lat="31.8034100" lon="34.9143300">
<ele>121.519997</ele>
<time>2021-07-21T10:37:03.862Z</time>
</trkpt>
<trkpt lat="31.8033600" lon="34.9142700">
<ele>120.919998</ele>
<time>2021-07-21T10:37:03.862Z</time>
</trkpt>
<trkpt lat="31.8032500" lon="34.9141600">
<ele>121.450005</ele>
<time>2021-07-21T10:37:03.862Z</time>
</trkpt>
<trkpt lat="31.8029700" lon="34.9139800">
<ele>123.550003</ele>
<time>2021-07-21T10:37:03.863Z</time>
</trkpt>
<trkpt lat="31.8025700" lon="34.9137700">
<ele>122.139999</ele>
<time>2021-07-21T10:37:03.863Z</time>
</trkpt>
<trkpt lat="31.8023400" lon="34.9136700">
<ele>125.550003</ele>
<time>2021-07-21T10:37:03.863Z</time>
</trkpt>
<trkpt lat="31.8017900" lon="34.9134800">
<ele>128.580002</ele>
<time>2021-07-21T10:37:03.863Z</time>
</trkpt>
<trkpt lat="31.8016900" lon="34.9134200">
<ele>128.880005</ele>
<time>2021-07-21T10:37:03.863Z</time>
</trkpt>
<trkpt lat="31.8014300" lon="34.9132900">
<ele>125.680000</ele>
<time>2021-07-21T10:37:03.863Z</time>
</trkpt>
<trkpt lat="31.8013600" lon="34.9132400">
<ele>125.269997</ele>
<time>2021-07-21T10:37:03.863Z</time>
</trkpt>
<trkpt lat="31.8011300" lon="34.9130700">
<ele>125.900002</ele>
<time>2021-07-21T10:37:03.863Z</time>
</trkpt>
<trkpt lat="31.8011300" lon="34.9130700">
<ele>125.900002</ele>
<time>2021-07-21T10:37:03.864Z</time>
</trkpt>
<trkpt lat="31.8011300" lon="34.9130700">
<ele>125.900002</ele>
<time>2021-07-21T10:37:03.864Z</time>
</trkpt>
<trkpt lat="31.8011300" lon="34.9130700">
<ele>125.900002</ele>
<time>2021-07-21T10:37:03.864Z</time>
</trkpt>
<trkpt lat="31.8013600" lon="34.9132400">
<ele>125.269997</ele>
<time>2021-07-21T10:37:03.864Z</time>
</trkpt>
<trkpt lat="31.8012300" lon="34.9133500">
<ele>124.360001</ele>
<time>2021-07-21T10:37:03.864Z</time>
</trkpt>
<trkpt lat="31.8011700" lon="34.9134600">
<ele>123.489998</ele>
<time>2021-07-21T10:37:03.864Z</time>
</trkpt>
<trkpt lat="31.8011000" lon="34.9135500">
<ele>122.510002</ele>
<time>2021-07-21T10:37:03.864Z</time>
</trkpt>
<trkpt lat="31.8008700" lon="34.9139700">
<ele>123.610001</ele>
<time>2021-07-21T10:37:03.864Z</time>
</trkpt>
<trkpt lat="31.8007000" lon="34.9142500">
<ele>123.339996</ele>
<time>2021-07-21T10:37:03.864Z</time>
</trkpt>
<trkpt lat="31.8004100" lon="34.9146200">
<ele>122.780006</ele>
<time>2021-07-21T10:37:03.864Z</time>
</trkpt>
<trkpt lat="31.8002600" lon="34.9147300">
<ele>123.000000</ele>
<time>2021-07-21T10:37:03.864Z</time>
</trkpt>
<trkpt lat="31.8001500" lon="34.9147600">
<ele>123.129997</ele>
<time>2021-07-21T10:37:03.864Z</time>
</trkpt>
<trkpt lat="31.7999100" lon="34.9147400">
<ele>123.690002</ele>
<time>2021-07-21T10:37:03.864Z</time>
</trkpt>
<trkpt lat="31.7996600" lon="34.9147600">
<ele>124.979996</ele>
<time>2021-07-21T10:37:03.864Z</time>
</trkpt>
<trkpt lat="31.7993800" lon="34.9148400">
<ele>125.339996</ele>
<time>2021-07-21T10:37:03.864Z</time>
</trkpt>
<trkpt lat="31.7993000" lon="34.9149000">
<ele>124.839996</ele>
<time>2021-07-21T10:37:03.864Z</time>
</trkpt>
<trkpt lat="31.7990200" lon="34.9151100">
<ele>122.760002</ele>
<time>2021-07-21T10:37:03.864Z</time>
</trkpt>
<trkpt lat="31.7988600" lon="34.9152900">
<ele>122.040001</ele>
<time>2021-07-21T10:37:03.864Z</time>
</trkpt>
<trkpt lat="31.7986300" lon="34.9156200">
<ele>123.909996</ele>
<time>2021-07-21T10:37:03.864Z</time>
</trkpt>
<trkpt lat="31.7985900" lon="34.9156800">
<ele>124.689995</ele>
<time>2021-07-21T10:37:03.864Z</time>
</trkpt>
<trkpt lat="31.7981600" lon="34.9160000">
<ele>123.500000</ele>
<time>2021-07-21T10:37:03.864Z</time>
</trkpt>
<trkpt lat="31.7979000" lon="34.9162200">
<ele>124.450005</ele>
<time>2021-07-21T10:37:03.864Z</time>
</trkpt>
<trkpt lat="31.7975400" lon="34.9164100">
<ele>123.659996</ele>
<time>2021-07-21T10:37:03.864Z</time>
</trkpt>
<trkpt lat="31.7972700" lon="34.9167500">
<ele>125.220001</ele>
<time>2021-07-21T10:37:03.864Z</time>
</trkpt>
<trkpt lat="31.7971800" lon="34.9168100">
<ele>124.089996</ele>
<time>2021-07-21T10:37:03.864Z</time>
</trkpt>
<trkpt lat="31.7970400" lon="34.9168700">
<ele>121.369995</ele>
<time>2021-07-21T10:37:03.864Z</time>
</trkpt>
<trkpt lat="31.7967800" lon="34.9171200">
<ele>122.920006</ele>
<time>2021-07-21T10:37:03.864Z</time>
</trkpt>
<trkpt lat="31.7966800" lon="34.9172100">
<ele>123.900002</ele>
<time>2021-07-21T10:37:03.864Z</time>
</trkpt>
<trkpt lat="31.7966200" lon="34.9172300">
<ele>123.449997</ele>
<time>2021-07-21T10:37:03.864Z</time>
</trkpt>
<trkpt lat="31.7966200" lon="34.9172300">
<ele>123.449997</ele>
<time>2021-07-21T10:37:03.864Z</time>
</trkpt>
<trkpt lat="31.7966200" lon="34.9172300">
<ele>123.449997</ele>
<time>2021-07-21T10:37:03.864Z</time>
</trkpt>
<trkpt lat="31.7965800" lon="34.9172500">
<ele>122.839996</ele>
<time>2021-07-21T10:37:03.864Z</time>
</trkpt>
<trkpt lat="31.7963500" lon="34.9173800">
<ele>118.220001</ele>
<time>2021-07-21T10:37:03.864Z</time>
</trkpt>
<trkpt lat="31.7961200" lon="34.9174800">
<ele>118.849998</ele>
<time>2021-07-21T10:37:03.864Z</time>
</trkpt>
<trkpt lat="31.7958900" lon="34.9176100">
<ele>121.720001</ele>
<time>2021-07-21T10:37:03.865Z</time>
</trkpt>
<trkpt lat="31.7957900" lon="34.9176500">
<ele>123.019997</ele>
<time>2021-07-21T10:37:03.865Z</time>
</trkpt>
<trkpt lat="31.7956600" lon="34.9177400">
<ele>126.089996</ele>
<time>2021-07-21T10:37:03.865Z</time>
</trkpt>
<trkpt lat="31.7956000" lon="34.9177600">
<ele>127.739998</ele>
<time>2021-07-21T10:37:03.865Z</time>
</trkpt>
<trkpt lat="31.7951300" lon="34.9180700">
<ele>125.939995</ele>
<time>2021-07-21T10:37:03.865Z</time>
</trkpt>
<trkpt lat="31.7950200" lon="34.9181800">
<ele>125.139999</ele>
<time>2021-07-21T10:37:03.865Z</time>
</trkpt>
<trkpt lat="31.7943800" lon="34.9189300">
<ele>121.040001</ele>
<time>2021-07-21T10:37:03.865Z</time>
</trkpt>
<trkpt lat="31.7942300" lon="34.9190400">
<ele>120.279999</ele>
<time>2021-07-21T10:37:03.865Z</time>
</trkpt>
<trkpt lat="31.7939400" lon="34.9192200">
<ele>118.290001</ele>
<time>2021-07-21T10:37:03.865Z</time>
</trkpt>
<trkpt lat="31.7938000" lon="34.9193500">
<ele>117.040001</ele>
<time>2021-07-21T10:37:03.866Z</time>
</trkpt>
<trkpt lat="31.7937300" lon="34.9194900">
<ele>116.730003</ele>
<time>2021-07-21T10:37:03.866Z</time>
</trkpt>
<trkpt lat="31.7936800" lon="34.9197400">
<ele>118.090004</ele>
<time>2021-07-21T10:37:03.866Z</time>
</trkpt>
<trkpt lat="31.7935300" lon="34.9199800">
<ele>118.950005</ele>
<time>2021-07-21T10:37:03.866Z</time>
</trkpt>
<trkpt lat="31.7932300" lon="34.9203100">
<ele>117.630005</ele>
<time>2021-07-21T10:37:03.866Z</time>
</trkpt>
<trkpt lat="31.7931300" lon="34.9206700">
<ele>119.209999</ele>
<time>2021-07-21T10:37:03.866Z</time>
</trkpt>
<trkpt lat="31.7929400" lon="34.9208300">
<ele>115.750008</ele>
<time>2021-07-21T10:37:03.866Z</time>
</trkpt>
<trkpt lat="31.7927900" lon="34.9210800">
<ele>115.910004</ele>
<time>2021-07-21T10:37:03.866Z</time>
</trkpt>
<trkpt lat="31.7926700" lon="34.9212900">
<ele>115.349998</ele>
<time>2021-07-21T10:37:03.866Z</time>
</trkpt>
<trkpt lat="31.7926300" lon="34.9213700">
<ele>115.200005</ele>
<time>2021-07-21T10:37:03.866Z</time>
</trkpt>
<trkpt lat="31.7925800" lon="34.9217700">
<ele>116.479996</ele>
<time>2021-07-21T10:37:03.866Z</time>
</trkpt>
<trkpt lat="31.7924100" lon="34.9219300">
<ele>117.540001</ele>
<time>2021-07-21T10:37:03.866Z</time>
</trkpt>
<trkpt lat="31.7923100" lon="34.9221200">
<ele>117.949997</ele>
<time>2021-07-21T10:37:03.866Z</time>
</trkpt>
<trkpt lat="31.7922100" lon="34.9222000">
<ele>117.839996</ele>
<time>2021-07-21T10:37:03.866Z</time>
</trkpt>
<trkpt lat="31.7920500" lon="34.9222600">
<ele>116.980003</ele>
<time>2021-07-21T10:37:03.866Z</time>
</trkpt>
<trkpt lat="31.7920100" lon="34.9222900">
<ele>116.900002</ele>
<time>2021-07-21T10:37:03.866Z</time>
</trkpt>
<trkpt lat="31.7916700" lon="34.9227600">
<ele>116.060005</ele>
<time>2021-07-21T10:37:03.866Z</time>
</trkpt>
<trkpt lat="31.7913300" lon="34.9230400">
<ele>114.519997</ele>
<time>2021-07-21T10:37:03.866Z</time>
</trkpt>
<trkpt lat="31.7911700" lon="34.9232000">
<ele>116.019997</ele>
<time>2021-07-21T10:37:03.866Z</time>
</trkpt>
<trkpt lat="31.7911200" lon="34.9232700">
<ele>116.919998</ele>
<time>2021-07-21T10:37:03.867Z</time>
</trkpt>
<trkpt lat="31.7911000" lon="34.9233500">
<ele>118.139999</ele>
<time>2021-07-21T10:37:03.867Z</time>
</trkpt>
<trkpt lat="31.7911000" lon="34.9233500">
<ele>118.139999</ele>
<time>2021-07-21T10:37:03.867Z</time>
</trkpt>
<trkpt lat="31.7911000" lon="34.9233500">
<ele>118.139999</ele>
<time>2021-07-21T10:37:03.867Z</time>
</trkpt>
<trkpt lat="31.7911000" lon="34.9235000">
<ele>119.740005</ele>
<time>2021-07-21T10:37:03.867Z</time>
</trkpt>
<trkpt lat="31.7911200" lon="34.9236200">
<ele>121.130005</ele>
<time>2021-07-21T10:37:03.867Z</time>
</trkpt>
<trkpt lat="31.7911700" lon="34.9237600">
<ele>122.589996</ele>
<time>2021-07-21T10:37:03.867Z</time>
</trkpt>
<trkpt lat="31.7912700" lon="34.9239500">
<ele>124.059998</ele>
<time>2021-07-21T10:37:03.867Z</time>
</trkpt>
<trkpt lat="31.7912700" lon="34.9240500">
<ele>125.080002</ele>
<time>2021-07-21T10:37:03.867Z</time>
</trkpt>
<trkpt lat="31.7912400" lon="34.9242400">
<ele>126.320000</ele>
<time>2021-07-21T10:37:03.867Z</time>
</trkpt>
<trkpt lat="31.7912000" lon="34.9243800">
<ele>126.000000</ele>
<time>2021-07-21T10:37:03.867Z</time>
</trkpt>
<trkpt lat="31.7912300" lon="34.9246100">
<ele>126.420006</ele>
<time>2021-07-21T10:37:03.867Z</time>
</trkpt>
<trkpt lat="31.7912300" lon="34.9249000">
<ele>128.919998</ele>
<time>2021-07-21T10:37:03.867Z</time>
</trkpt>
<trkpt lat="31.7912400" lon="34.9250300">
<ele>130.380005</ele>
<time>2021-07-21T10:37:03.867Z</time>
</trkpt>
<trkpt lat="31.7912800" lon="34.9251700">
<ele>132.080002</ele>
<time>2021-07-21T10:37:03.867Z</time>
</trkpt>
<trkpt lat="31.7913800" lon="34.9253500">
<ele>134.580002</ele>
<time>2021-07-21T10:37:03.867Z</time>
</trkpt>
<trkpt lat="31.7916700" lon="34.9256900">
<ele>140.930008</ele>
<time>2021-07-21T10:37:03.868Z</time>
</trkpt>
<trkpt lat="31.7918700" lon="34.9258600">
<ele>138.169998</ele>
<time>2021-07-21T10:37:03.868Z</time>
</trkpt>
<trkpt lat="31.7919900" lon="34.9259300">
<ele>137.410004</ele>
<time>2021-07-21T10:37:03.868Z</time>
</trkpt>
<trkpt lat="31.7921500" lon="34.9259800">
<ele>137.919998</ele>
<time>2021-07-21T10:37:03.868Z</time>
</trkpt>
<trkpt lat="31.7922800" lon="34.9260600">
<ele>138.520004</ele>
<time>2021-07-21T10:37:03.868Z</time>
</trkpt>
<trkpt lat="31.7923900" lon="34.9262000">
<ele>139.710007</ele>
<time>2021-07-21T10:37:03.868Z</time>
</trkpt>
<trkpt lat="31.7925200" lon="34.9264200">
<ele>141.789993</ele>
<time>2021-07-21T10:37:03.868Z</time>
</trkpt>
<trkpt lat="31.7930700" lon="34.9277000">
<ele>139.830002</ele>
<time>2021-07-21T10:37:03.868Z</time>
</trkpt>
<trkpt lat="31.7930900" lon="34.9277300">
<ele>139.610001</ele>
<time>2021-07-21T10:37:03.868Z</time>
</trkpt>
<trkpt lat="31.7930900" lon="34.9277300">
<ele>139.610001</ele>
<time>2021-07-21T10:37:03.868Z</time>
</trkpt>
<trkpt lat="31.7930900" lon="34.9277300">
<ele>139.610001</ele>
<time>2021-07-21T10:37:03.868Z</time>
</trkpt>
<trkpt lat="31.7933500" lon="34.9282600">
<ele>139.540009</ele>
<time>2021-07-21T10:37:03.868Z</time>
</trkpt>
<trkpt lat="31.7934000" lon="34.9284300">
<ele>139.800003</ele>
<time>2021-07-21T10:37:03.868Z</time>
</trkpt>
<trkpt lat="31.7934400" lon="34.9286500">
<ele>140.669998</ele>
<time>2021-07-21T10:37:03.868Z</time>
</trkpt>
<trkpt lat="31.7934600" lon="34.9286900">
<ele>140.669998</ele>
<time>2021-07-21T10:37:03.868Z</time>
</trkpt>
<trkpt lat="31.7935600" lon="34.9287800">
<ele>140.679993</ele>
<time>2021-07-21T10:37:03.868Z</time>
</trkpt>
<trkpt lat="31.7937900" lon="34.9289200">
<ele>139.750000</ele>
<time>2021-07-21T10:37:03.868Z</time>
</trkpt>
<trkpt lat="31.7938400" lon="34.9289800">
<ele>139.410004</ele>
<time>2021-07-21T10:37:03.868Z</time>
</trkpt>
<trkpt lat="31.7938700" lon="34.9290500">
<ele>139.179993</ele>
<time>2021-07-21T10:37:03.868Z</time>
</trkpt>
<trkpt lat="31.7939500" lon="34.9293200">
<ele>138.479996</ele>
<time>2021-07-21T10:37:03.868Z</time>
</trkpt>
<trkpt lat="31.7940700" lon="34.9294500">
<ele>138.380005</ele>
<time>2021-07-21T10:37:03.868Z</time>
</trkpt>
<trkpt lat="31.7941400" lon="34.9295700">
<ele>138.630005</ele>
<time>2021-07-21T10:37:03.868Z</time>
</trkpt>
<trkpt lat="31.7941900" lon="34.9297000">
<ele>138.589996</ele>
<time>2021-07-21T10:37:03.868Z</time>
</trkpt>
<trkpt lat="31.7942500" lon="34.9299000">
<ele>137.610001</ele>
<time>2021-07-21T10:37:03.868Z</time>
</trkpt>
<trkpt lat="31.7943700" lon="34.9305900">
<ele>135.699997</ele>
<time>2021-07-21T10:37:03.868Z</time>
</trkpt>
<trkpt lat="31.7944300" lon="34.9307700">
<ele>135.039993</ele>
<time>2021-07-21T10:37:03.868Z</time>
</trkpt>
<trkpt lat="31.7945800" lon="34.9310600">
<ele>135.419998</ele>
<time>2021-07-21T10:37:03.868Z</time>
</trkpt>
<trkpt lat="31.7947400" lon="34.9313300">
<ele>135.580002</ele>
<time>2021-07-21T10:37:03.868Z</time>
</trkpt>
<trkpt lat="31.7948200" lon="34.9315700">
<ele>135.830002</ele>
<time>2021-07-21T10:37:03.868Z</time>
</trkpt>
<trkpt lat="31.7948700" lon="34.9316700">
<ele>135.979996</ele>
<time>2021-07-21T10:37:03.868Z</time>
</trkpt>
<trkpt lat="31.7950200" lon="34.9318900">
<ele>137.139999</ele>
<time>2021-07-21T10:37:03.868Z</time>
</trkpt>
<trkpt lat="31.7951100" lon="34.9320400">
<ele>137.100006</ele>
<time>2021-07-21T10:37:03.869Z</time>
</trkpt>
<trkpt lat="31.7956800" lon="34.9331300">
<ele>138.240005</ele>
<time>2021-07-21T10:37:03.869Z</time>
</trkpt>
<trkpt lat="31.7958600" lon="34.9334400">
<ele>136.040009</ele>
<time>2021-07-21T10:37:03.869Z</time>
</trkpt>
<trkpt lat="31.7961600" lon="34.9338100">
<ele>133.239990</ele>
<time>2021-07-21T10:37:03.869Z</time>
</trkpt>
<trkpt lat="31.7962200" lon="34.9339000">
<ele>132.740005</ele>
<time>2021-07-21T10:37:03.869Z</time>
</trkpt>
<trkpt lat="31.7963500" lon="34.9342300">
<ele>133.380005</ele>
<time>2021-07-21T10:37:03.869Z</time>
</trkpt>
<trkpt lat="31.7964200" lon="34.9345000">
<ele>134.599991</ele>
<time>2021-07-21T10:37:03.869Z</time>
</trkpt>
<trkpt lat="31.7964600" lon="34.9349200">
<ele>137.369995</ele>
<time>2021-07-21T10:37:03.869Z</time>
</trkpt>
<trkpt lat="31.7964500" lon="34.9350500">
<ele>138.020004</ele>
<time>2021-07-21T10:37:03.869Z</time>
</trkpt>
<trkpt lat="31.7963300" lon="34.9358200">
<ele>135.610001</ele>
<time>2021-07-21T10:37:03.869Z</time>
</trkpt>
<trkpt lat="31.7963300" lon="34.9359200">
<ele>135.350006</ele>
<time>2021-07-21T10:37:03.870Z</time>
</trkpt>
<trkpt lat="31.7963200" lon="34.9359900">
<ele>135.460007</ele>
<time>2021-07-21T10:37:03.870Z</time>
</trkpt>
<trkpt lat="31.7963000" lon="34.9362500">
<ele>135.440002</ele>
<time>2021-07-21T10:37:03.870Z</time>
</trkpt>
<trkpt lat="31.7963400" lon="34.9365300">
<ele>134.610001</ele>
<time>2021-07-21T10:37:03.870Z</time>
</trkpt>
<trkpt lat="31.7963300" lon="34.9366500">
<ele>134.650009</ele>
<time>2021-07-21T10:37:03.870Z</time>
</trkpt>
<trkpt lat="31.7962400" lon="34.9368000">
<ele>135.130005</ele>
<time>2021-07-21T10:37:03.870Z</time>
</trkpt>
<trkpt lat="31.7959300" lon="34.9371000">
<ele>142.369995</ele>
<time>2021-07-21T10:37:03.870Z</time>
</trkpt>
<trkpt lat="31.7958700" lon="34.9371900">
<ele>144.330002</ele>
<time>2021-07-21T10:37:03.870Z</time>
</trkpt>
<trkpt lat="31.7958200" lon="34.9373600">
<ele>147.059998</ele>
<time>2021-07-21T10:37:03.870Z</time>
</trkpt>
<trkpt lat="31.7957200" lon="34.9375900">
<ele>149.660004</ele>
<time>2021-07-21T10:37:03.870Z</time>
</trkpt>
<trkpt lat="31.7957000" lon="34.9377200">
<ele>149.919998</ele>
<time>2021-07-21T10:37:03.870Z</time>
</trkpt>
<trkpt lat="31.7957100" lon="34.9380800">
<ele>151.900009</ele>
<time>2021-07-21T10:37:03.870Z</time>
</trkpt>
<trkpt lat="31.7956900" lon="34.9381500">
<ele>151.669998</ele>
<time>2021-07-21T10:37:03.870Z</time>
</trkpt>
<trkpt lat="31.7956400" lon="34.9382700">
<ele>151.529999</ele>
<time>2021-07-21T10:37:03.870Z</time>
</trkpt>
<trkpt lat="31.7958400" lon="34.9388200">
<ele>148.000000</ele>
<time>2021-07-21T10:37:03.870Z</time>
</trkpt>
<trkpt lat="31.7960300" lon="34.9394500">
<ele>144.260010</ele>
<time>2021-07-21T10:37:03.870Z</time>
</trkpt>
<trkpt lat="31.7960700" lon="34.9396100">
<ele>143.040009</ele>
<time>2021-07-21T10:37:03.870Z</time>
</trkpt>
<trkpt lat="31.7961600" lon="34.9397900">
<ele>141.050003</ele>
<time>2021-07-21T10:37:03.871Z</time>
</trkpt>
<trkpt lat="31.7962400" lon="34.9399700">
<ele>140.440002</ele>
<time>2021-07-21T10:37:03.871Z</time>
</trkpt>
<trkpt lat="31.7964800" lon="34.9403900">
<ele>147.229996</ele>
<time>2021-07-21T10:37:03.871Z</time>
</trkpt>
<trkpt lat="31.7964800" lon="34.9403900">
<ele>147.229996</ele>
<time>2021-07-21T10:37:03.871Z</time>
</trkpt>
<trkpt lat="31.7964800" lon="34.9403900">
<ele>147.229996</ele>
<time>2021-07-21T10:37:03.871Z</time>
</trkpt>
<trkpt lat="31.7965100" lon="34.9404600">
<ele>148.119995</ele>
<time>2021-07-21T10:37:03.871Z</time>
</trkpt>
<trkpt lat="31.7969400" lon="34.9410600">
<ele>142.709991</ele>
<time>2021-07-21T10:37:03.871Z</time>
</trkpt>
<trkpt lat="31.7968300" lon="34.9417700">
<ele>146.169998</ele>
<time>2021-07-21T10:37:03.871Z</time>
</trkpt>
<trkpt lat="31.7969000" lon="34.9422400">
<ele>147.660004</ele>
<time>2021-07-21T10:37:03.871Z</time>
</trkpt>
<trkpt lat="31.7970900" lon="34.9430500">
<ele>149.500000</ele>
<time>2021-07-21T10:37:03.871Z</time>
</trkpt>
<trkpt lat="31.7971400" lon="34.9431500">
<ele>149.669998</ele>
<time>2021-07-21T10:37:03.871Z</time>
</trkpt>
<trkpt lat="31.7973000" lon="34.9432900">
<ele>148.419998</ele>
<time>2021-07-21T10:37:03.871Z</time>
</trkpt>
<trkpt lat="31.7977800" lon="34.9435500">
<ele>147.760010</ele>
<time>2021-07-21T10:37:03.871Z</time>
</trkpt>
<trkpt lat="31.7981300" lon="34.9439200">
<ele>148.639999</ele>
<time>2021-07-21T10:37:03.871Z</time>
</trkpt>
<trkpt lat="31.7989700" lon="34.9453100">
<ele>146.300003</ele>
<time>2021-07-21T10:37:03.871Z</time>
</trkpt>
<trkpt lat="31.7989500" lon="34.9459100">
<ele>149.119995</ele>
<time>2021-07-21T10:37:03.871Z</time>
</trkpt>
<trkpt lat="31.7988400" lon="34.9463000">
<ele>147.070007</ele>
<time>2021-07-21T10:37:03.871Z</time>
</trkpt>
<trkpt lat="31.7987000" lon="34.9466700">
<ele>143.000000</ele>
<time>2021-07-21T10:37:03.872Z</time>
</trkpt>
<trkpt lat="31.7987300" lon="34.9470900">
<ele>145.240005</ele>
<time>2021-07-21T10:37:03.872Z</time>
</trkpt>
<trkpt lat="31.7987400" lon="34.9472500">
<ele>147.330002</ele>
<time>2021-07-21T10:37:03.872Z</time>
</trkpt>
<trkpt lat="31.7987400" lon="34.9474000">
<ele>148.699997</ele>
<time>2021-07-21T10:37:03.872Z</time>
</trkpt>
<trkpt lat="31.7987600" lon="34.9478300">
<ele>152.800003</ele>
<time>2021-07-21T10:37:03.872Z</time>
</trkpt>
<trkpt lat="31.7987600" lon="34.9487700">
<ele>157.259995</ele>
<time>2021-07-21T10:37:03.872Z</time>
</trkpt>
<trkpt lat="31.7988000" lon="34.9490100">
<ele>158.729996</ele>
<time>2021-07-21T10:37:03.872Z</time>
</trkpt>
<trkpt lat="31.7988800" lon="34.9491900">
<ele>159.660004</ele>
<time>2021-07-21T10:37:03.872Z</time>
</trkpt>
<trkpt lat="31.7990000" lon="34.9493900">
<ele>161.820007</ele>
<time>2021-07-21T10:37:03.872Z</time>
</trkpt>
<trkpt lat="31.7991400" lon="34.9495900">
<ele>163.569992</ele>
<time>2021-07-21T10:37:03.872Z</time>
</trkpt>
<trkpt lat="31.7996300" lon="34.9502700">
<ele>163.529999</ele>
<time>2021-07-21T10:37:03.872Z</time>
</trkpt>
<trkpt lat="31.8001200" lon="34.9509200">
<ele>156.949997</ele>
<time>2021-07-21T10:37:03.872Z</time>
</trkpt>
<trkpt lat="31.7999600" lon="34.9511300">
<ele>159.419998</ele>
<time>2021-07-21T10:37:03.872Z</time>
</trkpt>
<trkpt lat="31.7998400" lon="34.9514400">
<ele>159.709991</ele>
<time>2021-07-21T10:37:03.872Z</time>
</trkpt>
<trkpt lat="31.7998000" lon="34.9517700">
<ele>155.970001</ele>
<time>2021-07-21T10:37:03.872Z</time>
</trkpt>
<trkpt lat="31.7997200" lon="34.9518600">
<ele>154.169998</ele>
<time>2021-07-21T10:37:03.872Z</time>
</trkpt>
<trkpt lat="31.7992900" lon="34.9521700">
<ele>158.060013</ele>
<time>2021-07-21T10:37:03.872Z</time>
</trkpt>
<trkpt lat="31.7990700" lon="34.9523100">
<ele>160.770004</ele>
<time>2021-07-21T10:37:03.872Z</time>
</trkpt>
<trkpt lat="31.7990000" lon="34.9524100">
<ele>162.259995</ele>
<time>2021-07-21T10:37:03.872Z</time>
</trkpt>
<trkpt lat="31.7990000" lon="34.9524100">
<ele>162.259995</ele>
<time>2021-07-21T10:37:03.872Z</time>
</trkpt>
<trkpt lat="31.7990000" lon="34.9524100">
<ele>162.259995</ele>
<time>2021-07-21T10:37:03.873Z</time>
</trkpt>
<trkpt lat="31.7989200" lon="34.9525400">
<ele>163.569992</ele>
<time>2021-07-21T10:37:03.873Z</time>
</trkpt>
<trkpt lat="31.7988000" lon="34.9529300">
<ele>167.289993</ele>
<time>2021-07-21T10:37:03.873Z</time>
</trkpt>
<trkpt lat="31.7989400" lon="34.9534200">
<ele>164.209991</ele>
<time>2021-07-21T10:37:03.873Z</time>
</trkpt>
<trkpt lat="31.7989300" lon="34.9535400">
<ele>164.300003</ele>
<time>2021-07-21T10:37:03.873Z</time>
</trkpt>
<trkpt lat="31.7989200" lon="34.9544700">
<ele>167.289993</ele>
<time>2021-07-21T10:37:03.873Z</time>
</trkpt>
<trkpt lat="31.7988000" lon="34.9549400">
<ele>169.040009</ele>
<time>2021-07-21T10:37:03.873Z</time>
</trkpt>
<trkpt lat="31.7987000" lon="34.9551500">
<ele>169.429993</ele>
<time>2021-07-21T10:37:03.873Z</time>
</trkpt>
<trkpt lat="31.7986600" lon="34.9552600">
<ele>170.610001</ele>
<time>2021-07-21T10:37:03.873Z</time>
</trkpt>
<trkpt lat="31.7986600" lon="34.9554000">
<ele>172.220001</ele>
<time>2021-07-21T10:37:03.873Z</time>
</trkpt>
<trkpt lat="31.7986800" lon="34.9556500">
<ele>174.679993</ele>
<time>2021-07-21T10:37:03.873Z</time>
</trkpt>
<trkpt lat="31.7987000" lon="34.9557700">
<ele>175.540009</ele>
<time>2021-07-21T10:37:03.873Z</time>
</trkpt>
<trkpt lat="31.7987500" lon="34.9558900">
<ele>175.590012</ele>
<time>2021-07-21T10:37:03.873Z</time>
</trkpt>
<trkpt lat="31.7987800" lon="34.9560200">
<ele>174.370010</ele>
<time>2021-07-21T10:37:03.873Z</time>
</trkpt>
<trkpt lat="31.7988000" lon="34.9561500">
<ele>173.049988</ele>
<time>2021-07-21T10:37:03.873Z</time>
</trkpt>
<trkpt lat="31.7988100" lon="34.9562800">
<ele>172.180008</ele>
<time>2021-07-21T10:37:03.873Z</time>
</trkpt>
<trkpt lat="31.7987900" lon="34.9565600">
<ele>169.250000</ele>
<time>2021-07-21T10:37:03.873Z</time>
</trkpt>
<trkpt lat="31.7987800" lon="34.9566900">
<ele>167.500015</ele>
<time>2021-07-21T10:37:03.873Z</time>
</trkpt>
<trkpt lat="31.7987600" lon="34.9568200">
<ele>166.020004</ele>
<time>2021-07-21T10:37:03.873Z</time>
</trkpt>
<trkpt lat="31.7987600" lon="34.9568200">
<ele>166.020004</ele>
<time>2021-07-21T10:37:03.873Z</time>
</trkpt>
<trkpt lat="31.7987600" lon="34.9568400">
<ele>165.769989</ele>
<time>2021-07-21T10:37:03.873Z</time>
</trkpt>
<trkpt lat="31.7987300" lon="34.9569700">
<ele>164.370010</ele>
<time>2021-07-21T10:37:03.873Z</time>
</trkpt>
<trkpt lat="31.7987300" lon="34.9573300">
<ele>162.089996</ele>
<time>2021-07-21T10:37:03.873Z</time>
</trkpt>
<trkpt lat="31.7987600" lon="34.9574100">
<ele>162.320007</ele>
<time>2021-07-21T10:37:03.873Z</time>
</trkpt>
<trkpt lat="31.7988200" lon="34.9575000">
<ele>163.509995</ele>
<time>2021-07-21T10:37:03.873Z</time>
</trkpt>
<trkpt lat="31.7988800" lon="34.9576800">
<ele>166.080002</ele>
<time>2021-07-21T10:37:03.873Z</time>
</trkpt>
<trkpt lat="31.7988000" lon="34.9576900">
<ele>164.229996</ele>
<time>2021-07-21T10:37:03.873Z</time>
</trkpt>
<trkpt lat="31.7988000" lon="34.9576900">
<ele>164.229996</ele>
<time>2021-07-21T10:37:03.874Z</time>
</trkpt>
<trkpt lat="31.7985000" lon="34.9578500">
<ele>159.809998</ele>
<time>2021-07-21T10:37:03.874Z</time>
</trkpt>
<trkpt lat="31.7981400" lon="34.9582000">
<ele>163.070007</ele>
<time>2021-07-21T10:37:03.874Z</time>
</trkpt>
<trkpt lat="31.7980100" lon="34.9583700">
<ele>164.959991</ele>
<time>2021-07-21T10:37:03.874Z</time>
</trkpt>
<trkpt lat="31.7978000" lon="34.9588100">
<ele>171.039993</ele>
<time>2021-07-21T10:37:03.874Z</time>
</trkpt>
<trkpt lat="31.7975900" lon="34.9591700">
<ele>172.299988</ele>
<time>2021-07-21T10:37:03.874Z</time>
</trkpt>
<trkpt lat="31.7973900" lon="34.9593600">
<ele>170.660004</ele>
<time>2021-07-21T10:37:03.874Z</time>
</trkpt>
<trkpt lat="31.7972800" lon="34.9594400">
<ele>170.229996</ele>
<time>2021-07-21T10:37:03.874Z</time>
</trkpt>
<trkpt lat="31.7971800" lon="34.9595300">
<ele>172.539993</ele>
<time>2021-07-21T10:37:03.874Z</time>
</trkpt>
<trkpt lat="31.7970800" lon="34.9596500">
<ele>174.990005</ele>
<time>2021-07-21T10:37:03.874Z</time>
</trkpt>
<trkpt lat="31.7970200" lon="34.9597400">
<ele>175.339996</ele>
<time>2021-07-21T10:37:03.874Z</time>
</trkpt>
<trkpt lat="31.7969700" lon="34.9597900">
<ele>175.339996</ele>
<time>2021-07-21T10:37:03.874Z</time>
</trkpt>
<trkpt lat="31.7968800" lon="34.9598600">
<ele>176.429993</ele>
<time>2021-07-21T10:37:03.874Z</time>
</trkpt>
<trkpt lat="31.7968400" lon="34.9599000">
<ele>177.040009</ele>
<time>2021-07-21T10:37:03.874Z</time>
</trkpt>
<trkpt lat="31.7965500" lon="34.9602100">
<ele>181.440002</ele>
<time>2021-07-21T10:37:03.874Z</time>
</trkpt>
<trkpt lat="31.7962400" lon="34.9605200">
<ele>180.109985</ele>
<time>2021-07-21T10:37:03.874Z</time>
</trkpt>
<trkpt lat="31.7961200" lon="34.9606500">
<ele>178.490005</ele>
<time>2021-07-21T10:37:03.874Z</time>
</trkpt>
<trkpt lat="31.7960500" lon="34.9607700">
<ele>178.399994</ele>
<time>2021-07-21T10:37:03.874Z</time>
</trkpt>
<trkpt lat="31.7960300" lon="34.9609100">
<ele>180.320007</ele>
<time>2021-07-21T10:37:03.874Z</time>
</trkpt>
<trkpt lat="31.7961000" lon="34.9610500">
<ele>184.300003</ele>
<time>2021-07-21T10:37:03.874Z</time>
</trkpt>
<trkpt lat="31.7961100" lon="34.9611300">
<ele>186.250015</ele>
<time>2021-07-21T10:37:03.874Z</time>
</trkpt>
<trkpt lat="31.7960900" lon="34.9612200">
<ele>187.160004</ele>
<time>2021-07-21T10:37:03.874Z</time>
</trkpt>
<trkpt lat="31.7960500" lon="34.9612800">
<ele>187.199997</ele>
<time>2021-07-21T10:37:03.875Z</time>
</trkpt>
<trkpt lat="31.7958700" lon="34.9614300">
<ele>185.710007</ele>
<time>2021-07-21T10:37:03.875Z</time>
</trkpt>
<trkpt lat="31.7957400" lon="34.9615800">
<ele>187.680008</ele>
<time>2021-07-21T10:37:03.875Z</time>
</trkpt>
<trkpt lat="31.7955700" lon="34.9618600">
<ele>192.119995</ele>
<time>2021-07-21T10:37:03.875Z</time>
</trkpt>
<trkpt lat="31.7955600" lon="34.9619400">
<ele>193.970001</ele>
<time>2021-07-21T10:37:03.875Z</time>
</trkpt>
<trkpt lat="31.7955800" lon="34.9621000">
<ele>196.070007</ele>
<time>2021-07-21T10:37:03.875Z</time>
</trkpt>
<trkpt lat="31.7956600" lon="34.9624200">
<ele>199.660004</ele>
<time>2021-07-21T10:37:03.875Z</time>
</trkpt>
<trkpt lat="31.7957000" lon="34.9625400">
<ele>200.699997</ele>
<time>2021-07-21T10:37:03.875Z</time>
</trkpt>
<trkpt lat="31.7957300" lon="34.9627100">
<ele>201.449997</ele>
<time>2021-07-21T10:37:03.875Z</time>
</trkpt>
<trkpt lat="31.7957400" lon="34.9627900">
<ele>201.649994</ele>
<time>2021-07-21T10:37:03.875Z</time>
</trkpt>
<trkpt lat="31.7957500" lon="34.9628800">
<ele>201.589996</ele>
<time>2021-07-21T10:37:03.875Z</time>
</trkpt>
<trkpt lat="31.7957600" lon="34.9629900">
<ele>201.529999</ele>
<time>2021-07-21T10:37:03.875Z</time>
</trkpt>
<trkpt lat="31.7957700" lon="34.9630800">
<ele>201.520004</ele>
<time>2021-07-21T10:37:03.875Z</time>
</trkpt>
<trkpt lat="31.7957800" lon="34.9634100">
<ele>201.419998</ele>
<time>2021-07-21T10:37:03.875Z</time>
</trkpt>
<trkpt lat="31.7957800" lon="34.9635300">
<ele>201.419998</ele>
<time>2021-07-21T10:37:03.875Z</time>
</trkpt>
<trkpt lat="31.7958000" lon="34.9638600">
<ele>202.639999</ele>
<time>2021-07-21T10:37:03.875Z</time>
</trkpt>
<trkpt lat="31.7958100" lon="34.9640700">
<ele>202.940002</ele>
<time>2021-07-21T10:37:03.875Z</time>
</trkpt>
<trkpt lat="31.7957900" lon="34.9641900">
<ele>202.919998</ele>
<time>2021-07-21T10:37:03.875Z</time>
</trkpt>
<trkpt lat="31.7957600" lon="34.9642600">
<ele>202.660004</ele>
<time>2021-07-21T10:37:03.875Z</time>
</trkpt>
<trkpt lat="31.7957200" lon="34.9644100">
<ele>202.119995</ele>
<time>2021-07-21T10:37:03.876Z</time>
</trkpt>
<trkpt lat="31.7956900" lon="34.9645200">
<ele>201.879990</ele>
<time>2021-07-21T10:37:03.876Z</time>
</trkpt>
<trkpt lat="31.7956400" lon="34.9646300">
<ele>202.059998</ele>
<time>2021-07-21T10:37:03.876Z</time>
</trkpt>
<trkpt lat="31.7956200" lon="34.9646500">
<ele>202.219986</ele>
<time>2021-07-21T10:37:03.876Z</time>
</trkpt>
<trkpt lat="31.7955700" lon="34.9647000">
<ele>202.779999</ele>
<time>2021-07-21T10:37:03.876Z</time>
</trkpt>
<trkpt lat="31.7955300" lon="34.9647200">
<ele>203.269989</ele>
<time>2021-07-21T10:37:03.876Z</time>
</trkpt>
<trkpt lat="31.7954500" lon="34.9648000">
<ele>204.350006</ele>
<time>2021-07-21T10:37:03.876Z</time>
</trkpt>
<trkpt lat="31.7954500" lon="34.9648000">
<ele>204.350006</ele>
<time>2021-07-21T10:37:03.876Z</time>
</trkpt>
<trkpt lat="31.7954500" lon="34.9648000">
<ele>204.350006</ele>
<time>2021-07-21T10:37:03.876Z</time>
</trkpt>
<trkpt lat="31.7952600" lon="34.9650000">
<ele>207.999985</ele>
<time>2021-07-21T10:37:03.876Z</time>
</trkpt>
<trkpt lat="31.7952300" lon="34.9648900">
<ele>207.209991</ele>
<time>2021-07-21T10:37:03.876Z</time>
</trkpt>
<trkpt lat="31.7951900" lon="34.9648100">
<ele>206.629990</ele>
<time>2021-07-21T10:37:03.876Z</time>
</trkpt>
<trkpt lat="31.7950800" lon="34.9647800">
<ele>206.419998</ele>
<time>2021-07-21T10:37:03.876Z</time>
</trkpt>
<trkpt lat="31.7949700" lon="34.9647900">
<ele>206.029999</ele>
<time>2021-07-21T10:37:03.876Z</time>
</trkpt>
<trkpt lat="31.7947300" lon="34.9648900">
<ele>204.110001</ele>
<time>2021-07-21T10:37:03.876Z</time>
</trkpt>
<trkpt lat="31.7946400" lon="34.9649600">
<ele>203.889999</ele>
<time>2021-07-21T10:37:03.876Z</time>
</trkpt>
<trkpt lat="31.7945700" lon="34.9650500">
<ele>203.619995</ele>
<time>2021-07-21T10:37:03.877Z</time>
</trkpt>
<trkpt lat="31.7944000" lon="34.9653800">
<ele>203.679993</ele>
<time>2021-07-21T10:37:03.877Z</time>
</trkpt>
<trkpt lat="31.7942900" lon="34.9655500">
<ele>204.420013</ele>
<time>2021-07-21T10:37:03.877Z</time>
</trkpt>
<trkpt lat="31.7942100" lon="34.9656200">
<ele>204.580002</ele>
<time>2021-07-21T10:37:03.877Z</time>
</trkpt>
<trkpt lat="31.7939300" lon="34.9657300">
<ele>206.860001</ele>
<time>2021-07-21T10:37:03.877Z</time>
</trkpt>
<trkpt lat="31.7938500" lon="34.9658000">
<ele>208.769989</ele>
<time>2021-07-21T10:37:03.877Z</time>
</trkpt>
<trkpt lat="31.7937800" lon="34.9659000">
<ele>211.520004</ele>
<time>2021-07-21T10:37:03.877Z</time>
</trkpt>
<trkpt lat="31.7937300" lon="34.9660100">
<ele>214.169998</ele>
<time>2021-07-21T10:37:03.877Z</time>
</trkpt>
<trkpt lat="31.7937000" lon="34.9660900">
<ele>215.960007</ele>
<time>2021-07-21T10:37:03.877Z</time>
</trkpt>
<trkpt lat="31.7936600" lon="34.9663800">
<ele>219.440002</ele>
<time>2021-07-21T10:37:03.877Z</time>
</trkpt>
<trkpt lat="31.7935500" lon="34.9666100">
<ele>220.589996</ele>
<time>2021-07-21T10:37:03.877Z</time>
</trkpt>
<trkpt lat="31.7935300" lon="34.9667300">
<ele>221.229996</ele>
<time>2021-07-21T10:37:03.877Z</time>
</trkpt>
<trkpt lat="31.7934800" lon="34.9668400">
<ele>221.619995</ele>
<time>2021-07-21T10:37:03.877Z</time>
</trkpt>
<trkpt lat="31.7933800" lon="34.9669700">
<ele>222.319992</ele>
<time>2021-07-21T10:37:03.877Z</time>
</trkpt>
<trkpt lat="31.7932800" lon="34.9670800">
<ele>223.759995</ele>
<time>2021-07-21T10:37:03.877Z</time>
</trkpt>
<trkpt lat="31.7927100" lon="34.9674500">
<ele>232.789993</ele>
<time>2021-07-21T10:37:03.877Z</time>
</trkpt>
<trkpt lat="31.7926000" lon="34.9675600">
<ele>235.940002</ele>
<time>2021-07-21T10:37:03.877Z</time>
</trkpt>
<trkpt lat="31.7925400" lon="34.9677100">
<ele>238.809998</ele>
<time>2021-07-21T10:37:03.877Z</time>
</trkpt>
<trkpt lat="31.7925300" lon="34.9679700">
<ele>244.980011</ele>
<time>2021-07-21T10:37:03.877Z</time>
</trkpt>
<trkpt lat="31.7925000" lon="34.9681300">
<ele>248.799988</ele>
<time>2021-07-21T10:37:03.877Z</time>
</trkpt>
<trkpt lat="31.7924300" lon="34.9683800">
<ele>250.659988</ele>
<time>2021-07-21T10:37:03.878Z</time>
</trkpt>
<trkpt lat="31.7923900" lon="34.9684900">
<ele>251.389999</ele>
<time>2021-07-21T10:37:03.878Z</time>
</trkpt>
<trkpt lat="31.7923600" lon="34.9685800">
<ele>252.159988</ele>
<time>2021-07-21T10:37:03.878Z</time>
</trkpt>
<trkpt lat="31.7922200" lon="34.9685100">
<ele>250.509995</ele>
<time>2021-07-21T10:37:03.878Z</time>
</trkpt>
<trkpt lat="31.7920500" lon="34.9685600">
<ele>248.900009</ele>
<time>2021-07-21T10:37:03.878Z</time>
</trkpt>
<trkpt lat="31.7918700" lon="34.9685800">
<ele>247.069992</ele>
<time>2021-07-21T10:37:03.878Z</time>
</trkpt>
<trkpt lat="31.7913300" lon="34.9684900">
<ele>244.409988</ele>
<time>2021-07-21T10:37:03.878Z</time>
</trkpt>
<trkpt lat="31.7910100" lon="34.9684800">
<ele>249.509995</ele>
<time>2021-07-21T10:37:03.878Z</time>
</trkpt>
<trkpt lat="31.7908600" lon="34.9684500">
<ele>249.569992</ele>
<time>2021-07-21T10:37:03.878Z</time>
</trkpt>
<trkpt lat="31.7907300" lon="34.9683900">
<ele>250.970001</ele>
<time>2021-07-21T10:37:03.878Z</time>
</trkpt>
<trkpt lat="31.7904800" lon="34.9683100">
<ele>253.520004</ele>
<time>2021-07-21T10:37:03.878Z</time>
</trkpt>
<trkpt lat="31.7904600" lon="34.9683100">
<ele>253.460007</ele>
<time>2021-07-21T10:37:03.878Z</time>
</trkpt>
<trkpt lat="31.7904600" lon="34.9683100">
<ele>253.460007</ele>
<time>2021-07-21T10:37:03.878Z</time>
</trkpt>
<trkpt lat="31.7903400" lon="34.9683100">
<ele>253.099991</ele>
<time>2021-07-21T10:37:03.878Z</time>
</trkpt>
<trkpt lat="31.7900200" lon="34.9682500">
<ele>253.719986</ele>
<time>2021-07-21T10:37:03.878Z</time>
</trkpt>
<trkpt lat="31.7898300" lon="34.9681200">
<ele>259.410004</ele>
<time>2021-07-21T10:37:03.878Z</time>
</trkpt>
<trkpt lat="31.7894900" lon="34.9679600">
<ele>269.130005</ele>
<time>2021-07-21T10:37:03.879Z</time>
</trkpt>
<trkpt lat="31.7893000" lon="34.9678400">
<ele>269.619995</ele>
<time>2021-07-21T10:37:03.879Z</time>
</trkpt>
<trkpt lat="31.7892400" lon="34.9677400">
<ele>266.079987</ele>
<time>2021-07-21T10:37:03.879Z</time>
</trkpt>
<trkpt lat="31.7892200" lon="34.9676200">
<ele>257.509979</ele>
<time>2021-07-21T10:37:03.879Z</time>
</trkpt>
<trkpt lat="31.7891900" lon="34.9675400">
<ele>251.860001</ele>
<time>2021-07-21T10:37:03.879Z</time>
</trkpt>
<trkpt lat="31.7890400" lon="34.9673500">
<ele>250.539993</ele>
<time>2021-07-21T10:37:03.879Z</time>
</trkpt>
<trkpt lat="31.7889700" lon="34.9672200">
<ele>248.770004</ele>
<time>2021-07-21T10:37:03.879Z</time>
</trkpt>
<trkpt lat="31.7889100" lon="34.9671600">
<ele>250.729996</ele>
<time>2021-07-21T10:37:03.879Z</time>
</trkpt>
<trkpt lat="31.7889600" lon="34.9669700">
<ele>247.599991</ele>
<time>2021-07-21T10:37:03.879Z</time>
</trkpt>
<trkpt lat="31.7890600" lon="34.9667900">
<ele>245.210007</ele>
<time>2021-07-21T10:37:03.879Z</time>
</trkpt>
<trkpt lat="31.7891200" lon="34.9666500">
<ele>245.250000</ele>
<time>2021-07-21T10:37:03.879Z</time>
</trkpt>
<trkpt lat="31.7891400" lon="34.9665600">
<ele>246.110001</ele>
<time>2021-07-21T10:37:03.879Z</time>
</trkpt>
<trkpt lat="31.7891300" lon="34.9664500">
<ele>247.910004</ele>
<time>2021-07-21T10:37:03.879Z</time>
</trkpt>
<trkpt lat="31.7891000" lon="34.9663800">
<ele>249.339996</ele>
<time>2021-07-21T10:37:03.879Z</time>
</trkpt>
<trkpt lat="31.7890000" lon="34.9662300">
<ele>250.339996</ele>
<time>2021-07-21T10:37:03.879Z</time>
</trkpt>
<trkpt lat="31.7889300" lon="34.9661600">
<ele>251.920013</ele>
<time>2021-07-21T10:37:03.879Z</time>
</trkpt>
<trkpt lat="31.7886700" lon="34.9660100">
<ele>257.839996</ele>
<time>2021-07-21T10:37:03.879Z</time>
</trkpt>
<trkpt lat="31.7882900" lon="34.9657300">
<ele>258.839996</ele>
<time>2021-07-21T10:37:03.879Z</time>
</trkpt>
<trkpt lat="31.7879000" lon="34.9652600">
<ele>249.099991</ele>
<time>2021-07-21T10:37:03.879Z</time>
</trkpt>
<trkpt lat="31.7877200" lon="34.9650400">
<ele>239.970001</ele>
<time>2021-07-21T10:37:03.880Z</time>
</trkpt>
<trkpt lat="31.7876100" lon="34.9649300">
<ele>239.050003</ele>
<time>2021-07-21T10:37:03.880Z</time>
</trkpt>
<trkpt lat="31.7874900" lon="34.9649700">
<ele>239.190002</ele>
<time>2021-07-21T10:37:03.880Z</time>
</trkpt>
<trkpt lat="31.7871400" lon="34.9650200">
<ele>242.180008</ele>
<time>2021-07-21T10:37:03.880Z</time>
</trkpt>
<trkpt lat="31.7867400" lon="34.9651600">
<ele>246.580002</ele>
<time>2021-07-21T10:37:03.880Z</time>
</trkpt>
<trkpt lat="31.7866800" lon="34.9651700">
<ele>247.120010</ele>
<time>2021-07-21T10:37:03.880Z</time>
</trkpt>
<trkpt lat="31.7866200" lon="34.9650700">
<ele>247.180008</ele>
<time>2021-07-21T10:37:03.880Z</time>
</trkpt>
<trkpt lat="31.7866200" lon="34.9649500">
<ele>246.820007</ele>
<time>2021-07-21T10:37:03.880Z</time>
</trkpt>
<trkpt lat="31.7866500" lon="34.9648600">
<ele>246.710007</ele>
<time>2021-07-21T10:37:03.880Z</time>
</trkpt>
<trkpt lat="31.7867500" lon="34.9647500">
<ele>246.600006</ele>
<time>2021-07-21T10:37:03.880Z</time>
</trkpt>
<trkpt lat="31.7868300" lon="34.9647200">
<ele>246.440002</ele>
<time>2021-07-21T10:37:03.880Z</time>
</trkpt>
<trkpt lat="31.7870100" lon="34.9646700">
<ele>246.520004</ele>
<time>2021-07-21T10:37:03.880Z</time>
</trkpt>
<trkpt lat="31.7871200" lon="34.9646000">
<ele>247.129990</ele>
<time>2021-07-21T10:37:03.880Z</time>
</trkpt>
<trkpt lat="31.7874900" lon="34.9641000">
<ele>250.849991</ele>
<time>2021-07-21T10:37:03.880Z</time>
</trkpt>
<trkpt lat="31.7876200" lon="34.9638700">
<ele>251.239990</ele>
<time>2021-07-21T10:37:03.880Z</time>
</trkpt>
<trkpt lat="31.7876200" lon="34.9638700">
<ele>251.239990</ele>
<time>2021-07-21T10:37:03.880Z</time>
</trkpt>
<trkpt lat="31.7876200" lon="34.9638700">
<ele>251.239990</ele>
<time>2021-07-21T10:37:03.880Z</time>
</trkpt>
<trkpt lat="31.7880000" lon="34.9632100">
<ele>258.000000</ele>
<time>2021-07-21T10:37:03.880Z</time>
</trkpt>
<trkpt lat="31.7880300" lon="34.9631400">
<ele>258.420013</ele>
<time>2021-07-21T10:37:03.881Z</time>
</trkpt>
<trkpt lat="31.7880500" lon="34.9630800">
<ele>258.830017</ele>
<time>2021-07-21T10:37:03.881Z</time>
</trkpt>
<trkpt lat="31.7880800" lon="34.9629100">
<ele>258.510010</ele>
<time>2021-07-21T10:37:03.881Z</time>
</trkpt>
<trkpt lat="31.7880700" lon="34.9628000">
<ele>258.690002</ele>
<time>2021-07-21T10:37:03.881Z</time>
</trkpt>
<trkpt lat="31.7880200" lon="34.9627100">
<ele>258.459991</ele>
<time>2021-07-21T10:37:03.881Z</time>
</trkpt>
<trkpt lat="31.7879100" lon="34.9626300">
<ele>258.490021</ele>
<time>2021-07-21T10:37:03.881Z</time>
</trkpt>
<trkpt lat="31.7876900" lon="34.9625500">
<ele>260.699982</ele>
<time>2021-07-21T10:37:03.881Z</time>
</trkpt>
<trkpt lat="31.7872700" lon="34.9623500">
<ele>267.769989</ele>
<time>2021-07-21T10:37:03.881Z</time>
</trkpt>
<trkpt lat="31.7869600" lon="34.9621600">
<ele>264.239990</ele>
<time>2021-07-21T10:37:03.881Z</time>
</trkpt>
<trkpt lat="31.7867400" lon="34.9620400">
<ele>254.619995</ele>
<time>2021-07-21T10:37:03.881Z</time>
</trkpt>
<trkpt lat="31.7863800" lon="34.9619000">
<ele>243.250015</ele>
<time>2021-07-21T10:37:03.881Z</time>
</trkpt>
<trkpt lat="31.7861900" lon="34.9618600">
<ele>242.090012</ele>
<time>2021-07-21T10:37:03.881Z</time>
</trkpt>
<trkpt lat="31.7860700" lon="34.9618100">
<ele>240.709991</ele>
<time>2021-07-21T10:37:03.881Z</time>
</trkpt>
<trkpt lat="31.7859300" lon="34.9617000">
<ele>238.639999</ele>
<time>2021-07-21T10:37:03.881Z</time>
</trkpt>
<trkpt lat="31.7858600" lon="34.9616100">
<ele>238.059998</ele>
<time>2021-07-21T10:37:03.881Z</time>
</trkpt>
<trkpt lat="31.7857800" lon="34.9613700">
<ele>236.389999</ele>
<time>2021-07-21T10:37:03.881Z</time>
</trkpt>
<trkpt lat="31.7858800" lon="34.9609000">
<ele>229.580002</ele>
<time>2021-07-21T10:37:03.881Z</time>
</trkpt>
<trkpt lat="31.7859100" lon="34.9607400">
<ele>228.830002</ele>
<time>2021-07-21T10:37:03.881Z</time>
</trkpt>
<trkpt lat="31.7859100" lon="34.9606600">
<ele>228.830002</ele>
<time>2021-07-21T10:37:03.882Z</time>
</trkpt>
<trkpt lat="31.7858400" lon="34.9603100">
<ele>232.410004</ele>
<time>2021-07-21T10:37:03.882Z</time>
</trkpt>
<trkpt lat="31.7857100" lon="34.9598600">
<ele>237.440002</ele>
<time>2021-07-21T10:37:03.882Z</time>
</trkpt>
<trkpt lat="31.7857000" lon="34.9597000">
<ele>237.519989</ele>
<time>2021-07-21T10:37:03.882Z</time>
</trkpt>
<trkpt lat="31.7857300" lon="34.9595900">
<ele>237.669998</ele>
<time>2021-07-21T10:37:03.882Z</time>
</trkpt>
<trkpt lat="31.7857800" lon="34.9595100">
<ele>237.810013</ele>
<time>2021-07-21T10:37:03.882Z</time>
</trkpt>
<trkpt lat="31.7858700" lon="34.9594400">
<ele>239.000000</ele>
<time>2021-07-21T10:37:03.882Z</time>
</trkpt>
<trkpt lat="31.7861900" lon="34.9592300">
<ele>245.770004</ele>
<time>2021-07-21T10:37:03.882Z</time>
</trkpt>
<trkpt lat="31.7867400" lon="34.9587400">
<ele>242.360001</ele>
<time>2021-07-21T10:37:03.882Z</time>
</trkpt>
<trkpt lat="31.7871400" lon="34.9584400">
<ele>242.699997</ele>
<time>2021-07-21T10:37:03.882Z</time>
</trkpt>
<trkpt lat="31.7870500" lon="34.9583500">
<ele>243.290009</ele>
<time>2021-07-21T10:37:03.882Z</time>
</trkpt>
<trkpt lat="31.7869500" lon="34.9583300">
<ele>242.139999</ele>
<time>2021-07-21T10:37:03.882Z</time>
</trkpt>
<trkpt lat="31.7866100" lon="34.9583700">
<ele>247.769989</ele>
<time>2021-07-21T10:37:03.882Z</time>
</trkpt>
<trkpt lat="31.7861000" lon="34.9585000">
<ele>255.399994</ele>
<time>2021-07-21T10:37:03.882Z</time>
</trkpt>
<trkpt lat="31.7859100" lon="34.9585000">
<ele>258.820007</ele>
<time>2021-07-21T10:37:03.882Z</time>
</trkpt>
<trkpt lat="31.7858400" lon="34.9584800">
<ele>259.940002</ele>
<time>2021-07-21T10:37:03.882Z</time>
</trkpt>
<trkpt lat="31.7857500" lon="34.9584300">
<ele>260.170013</ele>
<time>2021-07-21T10:37:03.882Z</time>
</trkpt>
<trkpt lat="31.7857100" lon="34.9583700">
<ele>260.630005</ele>
<time>2021-07-21T10:37:03.882Z</time>
</trkpt>
<trkpt lat="31.7857000" lon="34.9582700">
<ele>261.169983</ele>
<time>2021-07-21T10:37:03.882Z</time>
</trkpt>
<trkpt lat="31.7857600" lon="34.9581700">
<ele>261.200012</ele>
<time>2021-07-21T10:37:03.882Z</time>
</trkpt>
<trkpt lat="31.7860200" lon="34.9579700">
<ele>259.829987</ele>
<time>2021-07-21T10:37:03.882Z</time>
</trkpt>
<trkpt lat="31.7862300" lon="34.9578900">
<ele>257.390015</ele>
<time>2021-07-21T10:37:03.882Z</time>
</trkpt>
<trkpt lat="31.7864700" lon="34.9578300">
<ele>256.350006</ele>
<time>2021-07-21T10:37:03.882Z</time>
</trkpt>
<trkpt lat="31.7866400" lon="34.9577500">
<ele>258.029999</ele>
<time>2021-07-21T10:37:03.882Z</time>
</trkpt>
<trkpt lat="31.7867000" lon="34.9576800">
<ele>257.959991</ele>
<time>2021-07-21T10:37:03.882Z</time>
</trkpt>
<trkpt lat="31.7867400" lon="34.9575900">
<ele>258.250000</ele>
<time>2021-07-21T10:37:03.882Z</time>
</trkpt>
<trkpt lat="31.7867300" lon="34.9574600">
<ele>259.649994</ele>
<time>2021-07-21T10:37:03.882Z</time>
</trkpt>
<trkpt lat="31.7866800" lon="34.9573100">
<ele>262.350006</ele>
<time>2021-07-21T10:37:03.883Z</time>
</trkpt>
<trkpt lat="31.7866700" lon="34.9572300">
<ele>263.839996</ele>
<time>2021-07-21T10:37:03.883Z</time>
</trkpt>
<trkpt lat="31.7866900" lon="34.9571500">
<ele>265.109985</ele>
<time>2021-07-21T10:37:03.883Z</time>
</trkpt>
<trkpt lat="31.7867300" lon="34.9570900">
<ele>265.820007</ele>
<time>2021-07-21T10:37:03.883Z</time>
</trkpt>
<trkpt lat="31.7868800" lon="34.9570100">
<ele>265.700012</ele>
<time>2021-07-21T10:37:03.883Z</time>
</trkpt>
<trkpt lat="31.7873700" lon="34.9568700">
<ele>261.820007</ele>
<time>2021-07-21T10:37:03.883Z</time>
</trkpt>
<trkpt lat="31.7875200" lon="34.9567700">
<ele>261.509979</ele>
<time>2021-07-21T10:37:03.883Z</time>
</trkpt>
<trkpt lat="31.7876000" lon="34.9566600">
<ele>263.059998</ele>
<time>2021-07-21T10:37:03.883Z</time>
</trkpt>
<trkpt lat="31.7876900" lon="34.9564900">
<ele>264.709991</ele>
<time>2021-07-21T10:37:03.883Z</time>
</trkpt>
<trkpt lat="31.7877800" lon="34.9562700">
<ele>266.869995</ele>
<time>2021-07-21T10:37:03.883Z</time>
</trkpt>
<trkpt lat="31.7878900" lon="34.9559300">
<ele>271.149994</ele>
<time>2021-07-21T10:37:03.884Z</time>
</trkpt>
<trkpt lat="31.7879300" lon="34.9558500">
<ele>272.339996</ele>
<time>2021-07-21T10:37:03.884Z</time>
</trkpt>
<trkpt lat="31.7880300" lon="34.9557100">
<ele>274.559998</ele>
<time>2021-07-21T10:37:03.884Z</time>
</trkpt>
<trkpt lat="31.7882300" lon="34.9554800">
<ele>275.880005</ele>
<time>2021-07-21T10:37:03.884Z</time>
</trkpt>
<trkpt lat="31.7882500" lon="34.9554100">
<ele>275.700012</ele>
<time>2021-07-21T10:37:03.884Z</time>
</trkpt>
<trkpt lat="31.7882300" lon="34.9553400">
<ele>276.119995</ele>
<time>2021-07-21T10:37:03.884Z</time>
</trkpt>
<trkpt lat="31.7882100" lon="34.9553100">
<ele>276.570007</ele>
<time>2021-07-21T10:37:03.884Z</time>
</trkpt>
<trkpt lat="31.7881000" lon="34.9551900">
<ele>278.239990</ele>
<time>2021-07-21T10:37:03.884Z</time>
</trkpt>
<trkpt lat="31.7880100" lon="34.9551800">
<ele>277.809998</ele>
<time>2021-07-21T10:37:03.884Z</time>
</trkpt>
<trkpt lat="31.7879700" lon="34.9551800">
<ele>276.809998</ele>
<time>2021-07-21T10:37:03.884Z</time>
</trkpt>
<trkpt lat="31.7878800" lon="34.9552000">
<ele>274.630005</ele>
<time>2021-07-21T10:37:03.884Z</time>
</trkpt>
<trkpt lat="31.7877800" lon="34.9552300">
<ele>272.059998</ele>
<time>2021-07-21T10:37:03.884Z</time>
</trkpt>
<trkpt lat="31.7873600" lon="34.9553700">
<ele>272.179993</ele>
<time>2021-07-21T10:37:03.884Z</time>
</trkpt>
<trkpt lat="31.7867200" lon="34.9554900">
<ele>283.299988</ele>
<time>2021-07-21T10:37:03.884Z</time>
</trkpt>
<trkpt lat="31.7864400" lon="34.9555700">
<ele>288.500000</ele>
<time>2021-07-21T10:37:03.884Z</time>
</trkpt>
<trkpt lat="31.7862200" lon="34.9557000">
<ele>290.380005</ele>
<time>2021-07-21T10:37:03.884Z</time>
</trkpt>
<trkpt lat="31.7860000" lon="34.9559200">
<ele>291.500000</ele>
<time>2021-07-21T10:37:03.884Z</time>
</trkpt>
<trkpt lat="31.7857200" lon="34.9560500">
<ele>290.529999</ele>
<time>2021-07-21T10:37:03.884Z</time>
</trkpt>
<trkpt lat="31.7856000" lon="34.9561300">
<ele>291.170013</ele>
<time>2021-07-21T10:37:03.884Z</time>
</trkpt>
<trkpt lat="31.7850300" lon="34.9566500">
<ele>284.839996</ele>
<time>2021-07-21T10:37:03.884Z</time>
</trkpt>
<trkpt lat="31.7846300" lon="34.9569700">
<ele>285.790009</ele>
<time>2021-07-21T10:37:03.884Z</time>
</trkpt>
<trkpt lat="31.7845100" lon="34.9570400">
<ele>285.050018</ele>
<time>2021-07-21T10:37:03.884Z</time>
</trkpt>
<trkpt lat="31.7843700" lon="34.9571000">
<ele>285.220001</ele>
<time>2021-07-21T10:37:03.884Z</time>
</trkpt>
<trkpt lat="31.7838800" lon="34.9572700">
<ele>289.320007</ele>
<time>2021-07-21T10:37:03.884Z</time>
</trkpt>
<trkpt lat="31.7834700" lon="34.9573800">
<ele>287.410004</ele>
<time>2021-07-21T10:37:03.884Z</time>
</trkpt>
<trkpt lat="31.7834300" lon="34.9574100">
<ele>286.919983</ele>
<time>2021-07-21T10:37:03.884Z</time>
</trkpt>
<trkpt lat="31.7834100" lon="34.9574300">
<ele>286.690002</ele>
<time>2021-07-21T10:37:03.884Z</time>
</trkpt>
<trkpt lat="31.7834100" lon="34.9574300">
<ele>286.690002</ele>
<time>2021-07-21T10:37:03.884Z</time>
</trkpt>
<trkpt lat="31.7834100" lon="34.9574300">
<ele>286.690002</ele>
<time>2021-07-21T10:37:03.884Z</time>
</trkpt>
<trkpt lat="31.7834100" lon="34.9574300">
<ele>286.690002</ele>
<time>2021-07-21T10:37:03.884Z</time>
</trkpt>
<trkpt lat="31.7833700" lon="34.9575000">
<ele>286.260010</ele>
<time>2021-07-21T10:37:03.884Z</time>
</trkpt>
<trkpt lat="31.7833400" lon="34.9576500">
<ele>288.209991</ele>
<time>2021-07-21T10:37:03.884Z</time>
</trkpt>
<trkpt lat="31.7833100" lon="34.9577300">
<ele>290.000000</ele>
<time>2021-07-21T10:37:03.884Z</time>
</trkpt>
<trkpt lat="31.7832700" lon="34.9577900">
<ele>292.139984</ele>
<time>2021-07-21T10:37:03.884Z</time>
</trkpt>
<trkpt lat="31.7832200" lon="34.9578500">
<ele>294.029999</ele>
<time>2021-07-21T10:37:03.884Z</time>
</trkpt>
<trkpt lat="31.7830600" lon="34.9579400">
<ele>298.309998</ele>
<time>2021-07-21T10:37:03.884Z</time>
</trkpt>
<trkpt lat="31.7829200" lon="34.9579700">
<ele>301.420013</ele>
<time>2021-07-21T10:37:03.884Z</time>
</trkpt>
<trkpt lat="31.7826700" lon="34.9579500">
<ele>306.850006</ele>
<time>2021-07-21T10:37:03.884Z</time>
</trkpt>
<trkpt lat="31.7825600" lon="34.9579700">
<ele>309.089996</ele>
<time>2021-07-21T10:37:03.884Z</time>
</trkpt>
<trkpt lat="31.7823600" lon="34.9580400">
<ele>311.459991</ele>
<time>2021-07-21T10:37:03.884Z</time>
</trkpt>
<trkpt lat="31.7822400" lon="34.9581100">
<ele>312.390015</ele>
<time>2021-07-21T10:37:03.884Z</time>
</trkpt>
<trkpt lat="31.7821100" lon="34.9582300">
<ele>311.589996</ele>
<time>2021-07-21T10:37:03.885Z</time>
</trkpt>
<trkpt lat="31.7820200" lon="34.9582800">
<ele>311.239990</ele>
<time>2021-07-21T10:37:03.885Z</time>
</trkpt>
<trkpt lat="31.7818300" lon="34.9583500">
<ele>309.819977</ele>
<time>2021-07-21T10:37:03.885Z</time>
</trkpt>
<trkpt lat="31.7815600" lon="34.9584100">
<ele>309.419983</ele>
<time>2021-07-21T10:37:03.885Z</time>
</trkpt>
<trkpt lat="31.7814300" lon="34.9585000">
<ele>312.189972</ele>
<time>2021-07-21T10:37:03.885Z</time>
</trkpt>
<trkpt lat="31.7813000" lon="34.9586500">
<ele>315.640015</ele>
<time>2021-07-21T10:37:03.885Z</time>
</trkpt>
<trkpt lat="31.7810200" lon="34.9590600">
<ele>319.480011</ele>
<time>2021-07-21T10:37:03.885Z</time>
</trkpt>
<trkpt lat="31.7809300" lon="34.9592200">
<ele>320.669983</ele>
<time>2021-07-21T10:37:03.885Z</time>
</trkpt>
<trkpt lat="31.7808500" lon="34.9594400">
<ele>323.799988</ele>
<time>2021-07-21T10:37:03.885Z</time>
</trkpt>
<trkpt lat="31.7807400" lon="34.9596600">
<ele>325.320007</ele>
<time>2021-07-21T10:37:03.885Z</time>
</trkpt>
<trkpt lat="31.7806900" lon="34.9598900">
<ele>327.580017</ele>
<time>2021-07-21T10:37:03.885Z</time>
</trkpt>
<trkpt lat="31.7806000" lon="34.9601500">
<ele>329.850006</ele>
<time>2021-07-21T10:37:03.885Z</time>
</trkpt>
<trkpt lat="31.7805900" lon="34.9603700">
<ele>331.619995</ele>
<time>2021-07-21T10:37:03.885Z</time>
</trkpt>
<trkpt lat="31.7805500" lon="34.9605300">
<ele>332.680023</ele>
<time>2021-07-21T10:37:03.885Z</time>
</trkpt>
<trkpt lat="31.7803100" lon="34.9610700">
<ele>330.859985</ele>
<time>2021-07-21T10:37:03.885Z</time>
</trkpt>
<trkpt lat="31.7802200" lon="34.9612100">
<ele>330.330017</ele>
<time>2021-07-21T10:37:03.885Z</time>
</trkpt>
<trkpt lat="31.7799600" lon="34.9615000">
<ele>332.000000</ele>
<time>2021-07-21T10:37:03.885Z</time>
</trkpt>
<trkpt lat="31.7798300" lon="34.9615900">
<ele>332.119995</ele>
<time>2021-07-21T10:37:03.885Z</time>
</trkpt>
<trkpt lat="31.7795800" lon="34.9616800">
<ele>332.190002</ele>
<time>2021-07-21T10:37:03.885Z</time>
</trkpt>
<trkpt lat="31.7794700" lon="34.9617500">
<ele>333.440002</ele>
<time>2021-07-21T10:37:03.885Z</time>
</trkpt>
<trkpt lat="31.7794000" lon="34.9618900">
<ele>335.600006</ele>
<time>2021-07-21T10:37:03.885Z</time>
</trkpt>
<trkpt lat="31.7792700" lon="34.9624700">
<ele>339.960022</ele>
<time>2021-07-21T10:37:03.885Z</time>
</trkpt>
<trkpt lat="31.7792300" lon="34.9626000">
<ele>339.450012</ele>
<time>2021-07-21T10:37:03.885Z</time>
</trkpt>
<trkpt lat="31.7791000" lon="34.9628300">
<ele>338.230011</ele>
<time>2021-07-21T10:37:03.885Z</time>
</trkpt>
<trkpt lat="31.7790200" lon="34.9629400">
<ele>338.040009</ele>
<time>2021-07-21T10:37:03.886Z</time>
</trkpt>
<trkpt lat="31.7789500" lon="34.9629900">
<ele>338.720001</ele>
<time>2021-07-21T10:37:03.886Z</time>
</trkpt>
<trkpt lat="31.7789000" lon="34.9630200">
<ele>339.490021</ele>
<time>2021-07-21T10:37:03.886Z</time>
</trkpt>
<trkpt lat="31.7786300" lon="34.9631700">
<ele>341.949982</ele>
<time>2021-07-21T10:37:03.886Z</time>
</trkpt>
<trkpt lat="31.7785700" lon="34.9632600">
<ele>342.899994</ele>
<time>2021-07-21T10:37:03.886Z</time>
</trkpt>
<trkpt lat="31.7785500" lon="34.9633300">
<ele>343.839996</ele>
<time>2021-07-21T10:37:03.886Z</time>
</trkpt>
<trkpt lat="31.7785800" lon="34.9637200">
<ele>348.260010</ele>
<time>2021-07-21T10:37:03.886Z</time>
</trkpt>
<trkpt lat="31.7785500" lon="34.9638700">
<ele>348.899994</ele>
<time>2021-07-21T10:37:03.886Z</time>
</trkpt>
<trkpt lat="31.7784600" lon="34.9641600">
<ele>350.419983</ele>
<time>2021-07-21T10:37:03.886Z</time>
</trkpt>
<trkpt lat="31.7784500" lon="34.9642400">
<ele>350.639984</ele>
<time>2021-07-21T10:37:03.886Z</time>
</trkpt>
<trkpt lat="31.7784900" lon="34.9644100">
<ele>351.549988</ele>
<time>2021-07-21T10:37:03.887Z</time>
</trkpt>
<trkpt lat="31.7784700" lon="34.9648500">
<ele>352.019989</ele>
<time>2021-07-21T10:37:03.887Z</time>
</trkpt>
<trkpt lat="31.7782700" lon="34.9657100">
<ele>342.020020</ele>
<time>2021-07-21T10:37:03.887Z</time>
</trkpt>
<trkpt lat="31.7782400" lon="34.9660300">
<ele>337.579987</ele>
<time>2021-07-21T10:37:03.887Z</time>
</trkpt>
<trkpt lat="31.7782200" lon="34.9662400">
<ele>337.380005</ele>
<time>2021-07-21T10:37:03.887Z</time>
</trkpt>
<trkpt lat="31.7781500" lon="34.9665000">
<ele>339.250000</ele>
<time>2021-07-21T10:37:03.887Z</time>
</trkpt>
<trkpt lat="31.7779700" lon="34.9665300">
<ele>339.140015</ele>
<time>2021-07-21T10:37:03.887Z</time>
</trkpt>
<trkpt lat="31.7774700" lon="34.9667700">
<ele>336.459991</ele>
<time>2021-07-21T10:37:03.887Z</time>
</trkpt>
<trkpt lat="31.7771200" lon="34.9668800">
<ele>338.340027</ele>
<time>2021-07-21T10:37:03.887Z</time>
</trkpt>
<trkpt lat="31.7770200" lon="34.9668900">
<ele>339.280029</ele>
<time>2021-07-21T10:37:03.887Z</time>
</trkpt>
<trkpt lat="31.7767200" lon="34.9668600">
<ele>342.089996</ele>
<time>2021-07-21T10:37:03.887Z</time>
</trkpt>
<trkpt lat="31.7762100" lon="34.9667600">
<ele>347.299988</ele>
<time>2021-07-21T10:37:03.887Z</time>
</trkpt>
<trkpt lat="31.7760800" lon="34.9667700">
<ele>348.319977</ele>
<time>2021-07-21T10:37:03.887Z</time>
</trkpt>
<trkpt lat="31.7760000" lon="34.9668000">
<ele>349.399994</ele>
<time>2021-07-21T10:37:03.887Z</time>
</trkpt>
<trkpt lat="31.7759100" lon="34.9668900">
<ele>352.320007</ele>
<time>2021-07-21T10:37:03.887Z</time>
</trkpt>
<trkpt lat="31.7758600" lon="34.9669600">
<ele>354.679993</ele>
<time>2021-07-21T10:37:03.887Z</time>
</trkpt>
<trkpt lat="31.7758100" lon="34.9670700">
<ele>355.609985</ele>
<time>2021-07-21T10:37:03.887Z</time>
</trkpt>
<trkpt lat="31.7758000" lon="34.9671500">
<ele>356.089996</ele>
<time>2021-07-21T10:37:03.887Z</time>
</trkpt>
<trkpt lat="31.7758100" lon="34.9672000">
<ele>356.579987</ele>
<time>2021-07-21T10:37:03.887Z</time>
</trkpt>
<trkpt lat="31.7758100" lon="34.9672000">
<ele>356.579987</ele>
<time>2021-07-21T10:37:03.887Z</time>
</trkpt>
<trkpt lat="31.7758100" lon="34.9672000">
<ele>356.579987</ele>
<time>2021-07-21T10:37:03.887Z</time>
</trkpt>
<trkpt lat="31.7758200" lon="34.9672500">
<ele>357.519989</ele>
<time>2021-07-21T10:37:03.887Z</time>
</trkpt>
<trkpt lat="31.7758800" lon="34.9673900">
<ele>362.099976</ele>
<time>2021-07-21T10:37:03.887Z</time>
</trkpt>
<trkpt lat="31.7759500" lon="34.9674800">
<ele>365.959991</ele>
<time>2021-07-21T10:37:03.887Z</time>
</trkpt>
<trkpt lat="31.7762600" lon="34.9677900">
<ele>371.829987</ele>
<time>2021-07-21T10:37:03.887Z</time>
</trkpt>
<trkpt lat="31.7765800" lon="34.9681700">
<ele>364.929993</ele>
<time>2021-07-21T10:37:03.887Z</time>
</trkpt>
<trkpt lat="31.7766800" lon="34.9683200">
<ele>362.950012</ele>
<time>2021-07-21T10:37:03.888Z</time>
</trkpt>
<trkpt lat="31.7768100" lon="34.9685900">
<ele>358.700012</ele>
<time>2021-07-21T10:37:03.888Z</time>
</trkpt>
<trkpt lat="31.7768600" lon="34.9688100">
<ele>358.760010</ele>
<time>2021-07-21T10:37:03.888Z</time>
</trkpt>
<trkpt lat="31.7768900" lon="34.9692500">
<ele>358.049988</ele>
<time>2021-07-21T10:37:03.888Z</time>
</trkpt>
<trkpt lat="31.7769900" lon="34.9700500">
<ele>355.679993</ele>
<time>2021-07-21T10:37:03.888Z</time>
</trkpt>
<trkpt lat="31.7769700" lon="34.9702500">
<ele>353.920013</ele>
<time>2021-07-21T10:37:03.888Z</time>
</trkpt>
<trkpt lat="31.7769500" lon="34.9703400">
<ele>353.380005</ele>
<time>2021-07-21T10:37:03.888Z</time>
</trkpt>
<trkpt lat="31.7769100" lon="34.9704100">
<ele>352.660004</ele>
<time>2021-07-21T10:37:03.888Z</time>
</trkpt>
<trkpt lat="31.7768000" lon="34.9705400">
<ele>351.260010</ele>
<time>2021-07-21T10:37:03.888Z</time>
</trkpt>
<trkpt lat="31.7767100" lon="34.9705900">
<ele>350.339996</ele>
<time>2021-07-21T10:37:03.888Z</time>
</trkpt>
<trkpt lat="31.7764000" lon="34.9706900">
<ele>347.119995</ele>
<time>2021-07-21T10:37:03.888Z</time>
</trkpt>
<trkpt lat="31.7761800" lon="34.9707400">
<ele>346.410004</ele>
<time>2021-07-21T10:37:03.888Z</time>
</trkpt>
<trkpt lat="31.7757900" lon="34.9708000">
<ele>351.449982</ele>
<time>2021-07-21T10:37:03.888Z</time>
</trkpt>
<trkpt lat="31.7756400" lon="34.9708600">
<ele>354.229980</ele>
<time>2021-07-21T10:37:03.888Z</time>
</trkpt>
<trkpt lat="31.7755800" lon="34.9709200">
<ele>356.180023</ele>
<time>2021-07-21T10:37:03.888Z</time>
</trkpt>
<trkpt lat="31.7755200" lon="34.9710300">
<ele>358.670013</ele>
<time>2021-07-21T10:37:03.888Z</time>
</trkpt>
<trkpt lat="31.7754900" lon="34.9711700">
<ele>361.049988</ele>
<time>2021-07-21T10:37:03.888Z</time>
</trkpt>
<trkpt lat="31.7754700" lon="34.9712600">
<ele>362.160004</ele>
<time>2021-07-21T10:37:03.888Z</time>
</trkpt>
<trkpt lat="31.7754700" lon="34.9712600">
<ele>362.160004</ele>
<time>2021-07-21T10:37:03.889Z</time>
</trkpt>
<trkpt lat="31.7754700" lon="34.9712900">
<ele>362.539978</ele>
<time>2021-07-21T10:37:03.889Z</time>
</trkpt>
<trkpt lat="31.7754800" lon="34.9721200">
<ele>362.310028</ele>
<time>2021-07-21T10:37:03.889Z</time>
</trkpt>
<trkpt lat="31.7754600" lon="34.9722900">
<ele>361.039978</ele>
<time>2021-07-21T10:37:03.889Z</time>
</trkpt>
<trkpt lat="31.7754300" lon="34.9724700">
<ele>360.170013</ele>
<time>2021-07-21T10:37:03.889Z</time>
</trkpt>
<trkpt lat="31.7752100" lon="34.9731100">
<ele>364.660004</ele>
<time>2021-07-21T10:37:03.889Z</time>
</trkpt>
<trkpt lat="31.7751900" lon="34.9732600">
<ele>366.829987</ele>
<time>2021-07-21T10:37:03.889Z</time>
</trkpt>
<trkpt lat="31.7752000" lon="34.9734000">
<ele>368.880005</ele>
<time>2021-07-21T10:37:03.889Z</time>
</trkpt>
<trkpt lat="31.7752400" lon="34.9735700">
<ele>371.149994</ele>
<time>2021-07-21T10:37:03.889Z</time>
</trkpt>
<trkpt lat="31.7752900" lon="34.9736900">
<ele>372.490021</ele>
<time>2021-07-21T10:37:03.889Z</time>
</trkpt>
<trkpt lat="31.7753600" lon="34.9738000">
<ele>373.959991</ele>
<time>2021-07-21T10:37:03.889Z</time>
</trkpt>
<trkpt lat="31.7756600" lon="34.9741100">
<ele>372.779999</ele>
<time>2021-07-21T10:37:03.889Z</time>
</trkpt>
<trkpt lat="31.7758400" lon="34.9743200">
<ele>371.229980</ele>
<time>2021-07-21T10:37:03.889Z</time>
</trkpt>
<trkpt lat="31.7759000" lon="34.9744800">
<ele>368.980011</ele>
<time>2021-07-21T10:37:03.889Z</time>
</trkpt>
<trkpt lat="31.7759400" lon="34.9746800">
<ele>367.690002</ele>
<time>2021-07-21T10:37:03.889Z</time>
</trkpt>
<trkpt lat="31.7758400" lon="34.9748700">
<ele>365.449982</ele>
<time>2021-07-21T10:37:03.889Z</time>
</trkpt>
<trkpt lat="31.7757500" lon="34.9751100">
<ele>365.099976</ele>
<time>2021-07-21T10:37:03.889Z</time>
</trkpt>
<trkpt lat="31.7757500" lon="34.9751100">
<ele>365.099976</ele>
<time>2021-07-21T10:37:03.889Z</time>
</trkpt>
<trkpt lat="31.7757500" lon="34.9751100">
<ele>365.099976</ele>
<time>2021-07-21T10:37:03.889Z</time>
</trkpt>
<trkpt lat="31.7757500" lon="34.9751100">
<ele>365.099976</ele>
<time>2021-07-21T10:37:03.890Z</time>
</trkpt>
<trkpt lat="31.7756000" lon="34.9754900">
<ele>373.029999</ele>
<time>2021-07-21T10:37:03.890Z</time>
</trkpt>
<trkpt lat="31.7755500" lon="34.9756600">
<ele>375.660004</ele>
<time>2021-07-21T10:37:03.890Z</time>
</trkpt>
<trkpt lat="31.7755300" lon="34.9758400">
<ele>376.630005</ele>
<time>2021-07-21T10:37:03.890Z</time>
</trkpt>
<trkpt lat="31.7755400" lon="34.9759700">
<ele>376.750000</ele>
<time>2021-07-21T10:37:03.890Z</time>
</trkpt>
<trkpt lat="31.7755800" lon="34.9761000">
<ele>377.080017</ele>
<time>2021-07-21T10:37:03.890Z</time>
</trkpt>
<trkpt lat="31.7756500" lon="34.9762700">
<ele>380.019989</ele>
<time>2021-07-21T10:37:03.890Z</time>
</trkpt>
<trkpt lat="31.7757900" lon="34.9764900">
<ele>384.260010</ele>
<time>2021-07-21T10:37:03.890Z</time>
</trkpt>
<trkpt lat="31.7759300" lon="34.9766600">
<ele>384.549988</ele>
<time>2021-07-21T10:37:03.890Z</time>
</trkpt>
<trkpt lat="31.7761200" lon="34.9768600">
<ele>379.190002</ele>
<time>2021-07-21T10:37:03.890Z</time>
</trkpt>
<trkpt lat="31.7759800" lon="34.9771500">
<ele>377.590027</ele>
<time>2021-07-21T10:37:03.890Z</time>
</trkpt>
<trkpt lat="31.7760400" lon="34.9774500">
<ele>376.720001</ele>
<time>2021-07-21T10:37:03.890Z</time>
</trkpt>
<trkpt lat="31.7759400" lon="34.9782500">
<ele>388.529999</ele>
<time>2021-07-21T10:37:03.890Z</time>
</trkpt>
<trkpt lat="31.7758100" lon="34.9784200">
<ele>388.210022</ele>
<time>2021-07-21T10:37:03.890Z</time>
</trkpt>
<trkpt lat="31.7757200" lon="34.9786300">
<ele>386.020020</ele>
<time>2021-07-21T10:37:03.890Z</time>
</trkpt>
<trkpt lat="31.7754000" lon="34.9790700">
<ele>381.730011</ele>
<time>2021-07-21T10:37:03.890Z</time>
</trkpt>
<trkpt lat="31.7751200" lon="34.9795000">
<ele>386.399994</ele>
<time>2021-07-21T10:37:03.890Z</time>
</trkpt>
<trkpt lat="31.7750500" lon="34.9796700">
<ele>390.430023</ele>
<time>2021-07-21T10:37:03.890Z</time>
</trkpt>
<trkpt lat="31.7750300" lon="34.9798100">
<ele>392.160004</ele>
<time>2021-07-21T10:37:03.890Z</time>
</trkpt>
<trkpt lat="31.7750200" lon="34.9799500">
<ele>393.399994</ele>
<time>2021-07-21T10:37:03.890Z</time>
</trkpt>
<trkpt lat="31.7750300" lon="34.9801200">
<ele>394.590027</ele>
<time>2021-07-21T10:37:03.890Z</time>
</trkpt>
<trkpt lat="31.7750800" lon="34.9802700">
<ele>395.360016</ele>
<time>2021-07-21T10:37:03.890Z</time>
</trkpt>
<trkpt lat="31.7752900" lon="34.9806700">
<ele>397.719971</ele>
<time>2021-07-21T10:37:03.890Z</time>
</trkpt>
<trkpt lat="31.7753600" lon="34.9807700">
<ele>396.940002</ele>
<time>2021-07-21T10:37:03.890Z</time>
</trkpt>
<trkpt lat="31.7755300" lon="34.9809300">
<ele>397.089996</ele>
<time>2021-07-21T10:37:03.891Z</time>
</trkpt>
<trkpt lat="31.7760800" lon="34.9812600">
<ele>389.950012</ele>
<time>2021-07-21T10:37:03.891Z</time>
</trkpt>
<trkpt lat="31.7762200" lon="34.9813400">
<ele>386.620026</ele>
<time>2021-07-21T10:37:03.891Z</time>
</trkpt>
<trkpt lat="31.7763200" lon="34.9814400">
<ele>384.669983</ele>
<time>2021-07-21T10:37:03.891Z</time>
</trkpt>
<trkpt lat="31.7763700" lon="34.9815400">
<ele>383.619995</ele>
<time>2021-07-21T10:37:03.891Z</time>
</trkpt>
<trkpt lat="31.7763500" lon="34.9816400">
<ele>383.279999</ele>
<time>2021-07-21T10:37:03.891Z</time>
</trkpt>
<trkpt lat="31.7762200" lon="34.9818600">
<ele>378.740021</ele>
<time>2021-07-21T10:37:03.891Z</time>
</trkpt>
<trkpt lat="31.7760500" lon="34.9820800">
<ele>375.519989</ele>
<time>2021-07-21T10:37:03.891Z</time>
</trkpt>
<trkpt lat="31.7758700" lon="34.9822500">
<ele>370.720001</ele>
<time>2021-07-21T10:37:03.891Z</time>
</trkpt>
<trkpt lat="31.7756900" lon="34.9823500">
<ele>364.950012</ele>
<time>2021-07-21T10:37:03.891Z</time>
</trkpt>
<trkpt lat="31.7755100" lon="34.9824000">
<ele>362.019989</ele>
<time>2021-07-21T10:37:03.891Z</time>
</trkpt>
<trkpt lat="31.7753400" lon="34.9824100">
<ele>360.200012</ele>
<time>2021-07-21T10:37:03.891Z</time>
</trkpt>
<trkpt lat="31.7746900" lon="34.9822800">
<ele>359.709991</ele>
<time>2021-07-21T10:37:03.891Z</time>
</trkpt>
<trkpt lat="31.7745600" lon="34.9823000">
<ele>358.500000</ele>
<time>2021-07-21T10:37:03.891Z</time>
</trkpt>
<trkpt lat="31.7744400" lon="34.9823700">
<ele>357.510010</ele>
<time>2021-07-21T10:37:03.891Z</time>
</trkpt>
<trkpt lat="31.7743800" lon="34.9824400">
<ele>357.730011</ele>
<time>2021-07-21T10:37:03.891Z</time>
</trkpt>
<trkpt lat="31.7742700" lon="34.9826000">
<ele>358.750000</ele>
<time>2021-07-21T10:37:03.891Z</time>
</trkpt>
<trkpt lat="31.7741600" lon="34.9828100">
<ele>360.100006</ele>
<time>2021-07-21T10:37:03.891Z</time>
</trkpt>
<trkpt lat="31.7740600" lon="34.9830000">
<ele>360.080017</ele>
<time>2021-07-21T10:37:03.891Z</time>
</trkpt>
<trkpt lat="31.7740200" lon="34.9830600">
<ele>359.419983</ele>
<time>2021-07-21T10:37:03.891Z</time>
</trkpt>
<trkpt lat="31.7737100" lon="34.9836700">
<ele>354.630005</ele>
<time>2021-07-21T10:37:03.891Z</time>
</trkpt>
<trkpt lat="31.7736400" lon="34.9838500">
<ele>355.489990</ele>
<time>2021-07-21T10:37:03.891Z</time>
</trkpt>
<trkpt lat="31.7739200" lon="34.9840000">
<ele>353.309998</ele>
<time>2021-07-21T10:37:03.891Z</time>
</trkpt>
<trkpt lat="31.7742400" lon="34.9839200">
<ele>346.699982</ele>
<time>2021-07-21T10:37:03.891Z</time>
</trkpt>
<trkpt lat="31.7745900" lon="34.9839100">
<ele>345.029999</ele>
<time>2021-07-21T10:37:03.891Z</time>
</trkpt>
<trkpt lat="31.7749200" lon="34.9839400">
<ele>346.029999</ele>
<time>2021-07-21T10:37:03.891Z</time>
</trkpt>
<trkpt lat="31.7751100" lon="34.9839200">
<ele>344.110016</ele>
<time>2021-07-21T10:37:03.891Z</time>
</trkpt>
<trkpt lat="31.7752500" lon="34.9839400">
<ele>339.989990</ele>
<time>2021-07-21T10:37:03.892Z</time>
</trkpt>
<trkpt lat="31.7752500" lon="34.9839400">
<ele>339.989990</ele>
<time>2021-07-21T10:37:03.892Z</time>
</trkpt>
<trkpt lat="31.7754500" lon="34.9839700">
<ele>335.399994</ele>
<time>2021-07-21T10:37:03.892Z</time>
</trkpt>
<trkpt lat="31.7757700" lon="34.9840400">
<ele>335.369995</ele>
<time>2021-07-21T10:37:03.892Z</time>
</trkpt>
<trkpt lat="31.7758400" lon="34.9840700">
<ele>335.660004</ele>
<time>2021-07-21T10:37:03.892Z</time>
</trkpt>
<trkpt lat="31.7759300" lon="34.9839000">
<ele>336.889984</ele>
<time>2021-07-21T10:37:03.892Z</time>
</trkpt>
<trkpt lat="31.7760300" lon="34.9838000">
<ele>338.279999</ele>
<time>2021-07-21T10:37:03.892Z</time>
</trkpt>
<trkpt lat="31.7763900" lon="34.9837400">
<ele>335.600006</ele>
<time>2021-07-21T10:37:03.892Z</time>
</trkpt>
<trkpt lat="31.7766800" lon="34.9836500">
<ele>335.149994</ele>
<time>2021-07-21T10:37:03.892Z</time>
</trkpt>
<trkpt lat="31.7768100" lon="34.9836400">
<ele>338.049988</ele>
<time>2021-07-21T10:37:03.892Z</time>
</trkpt>
<trkpt lat="31.7769000" lon="34.9836800">
<ele>340.000000</ele>
<time>2021-07-21T10:37:03.892Z</time>
</trkpt>
<trkpt lat="31.7771500" lon="34.9839100">
<ele>344.399994</ele>
<time>2021-07-21T10:37:03.892Z</time>
</trkpt>
<trkpt lat="31.7772400" lon="34.9840400">
<ele>343.670013</ele>
<time>2021-07-21T10:37:03.892Z</time>
</trkpt>
<trkpt lat="31.7772800" lon="34.9841100">
<ele>342.360016</ele>
<time>2021-07-21T10:37:03.892Z</time>
</trkpt>
<trkpt lat="31.7773600" lon="34.9842000">
<ele>340.109985</ele>
<time>2021-07-21T10:37:03.892Z</time>
</trkpt>
<trkpt lat="31.7777800" lon="34.9844800">
<ele>332.940002</ele>
<time>2021-07-21T10:37:03.892Z</time>
</trkpt>
<trkpt lat="31.7780100" lon="34.9846800">
<ele>323.160004</ele>
<time>2021-07-21T10:37:03.892Z</time>
</trkpt>
<trkpt lat="31.7780700" lon="34.9847700">
<ele>320.830017</ele>
<time>2021-07-21T10:37:03.892Z</time>
</trkpt>
<trkpt lat="31.7781400" lon="34.9849400">
<ele>319.609985</ele>
<time>2021-07-21T10:37:03.892Z</time>
</trkpt>
<trkpt lat="31.7779200" lon="34.9849700">
<ele>321.699982</ele>
<time>2021-07-21T10:37:03.892Z</time>
</trkpt>
<trkpt lat="31.7778300" lon="34.9850800">
<ele>321.290009</ele>
<time>2021-07-21T10:37:03.892Z</time>
</trkpt>
<trkpt lat="31.7778800" lon="34.9851400">
<ele>320.809998</ele>
<time>2021-07-21T10:37:03.892Z</time>
</trkpt>
<trkpt lat="31.7780400" lon="34.9851700">
<ele>320.409973</ele>
<time>2021-07-21T10:37:03.892Z</time>
</trkpt>
<trkpt lat="31.7783000" lon="34.9852800">
<ele>314.669983</ele>
<time>2021-07-21T10:37:03.892Z</time>
</trkpt>
<trkpt lat="31.7784500" lon="34.9853500">
<ele>309.190002</ele>
<time>2021-07-21T10:37:03.892Z</time>
</trkpt>
<trkpt lat="31.7788900" lon="34.9853700">
<ele>304.000000</ele>
<time>2021-07-21T10:37:03.892Z</time>
</trkpt>
<trkpt lat="31.7792500" lon="34.9853300">
<ele>305.239990</ele>
<time>2021-07-21T10:37:03.892Z</time>
</trkpt>
<trkpt lat="31.7799200" lon="34.9851600">
<ele>300.579987</ele>
<time>2021-07-21T10:37:03.892Z</time>
</trkpt>
<trkpt lat="31.7802400" lon="34.9851700">
<ele>299.720001</ele>
<time>2021-07-21T10:37:03.892Z</time>
</trkpt>
<trkpt lat="31.7803200" lon="34.9851700">
<ele>299.679993</ele>
<time>2021-07-21T10:37:03.892Z</time>
</trkpt>
<trkpt lat="31.7804600" lon="34.9851600">
<ele>299.470001</ele>
<time>2021-07-21T10:37:03.892Z</time>
</trkpt>
<trkpt lat="31.7806000" lon="34.9851200">
<ele>299.609985</ele>
<time>2021-07-21T10:37:03.892Z</time>
</trkpt>
<trkpt lat="31.7806900" lon="34.9850500">
<ele>300.059998</ele>
<time>2021-07-21T10:37:03.892Z</time>
</trkpt>
<trkpt lat="31.7807500" lon="34.9849400">
<ele>300.799988</ele>
<time>2021-07-21T10:37:03.892Z</time>
</trkpt>
<trkpt lat="31.7808800" lon="34.9845900">
<ele>301.579987</ele>
<time>2021-07-21T10:37:03.892Z</time>
</trkpt>
<trkpt lat="31.7811000" lon="34.9841000">
<ele>296.660004</ele>
<time>2021-07-21T10:37:03.892Z</time>
</trkpt>
<trkpt lat="31.7811700" lon="34.9839100">
<ele>293.859985</ele>
<time>2021-07-21T10:37:03.892Z</time>
</trkpt>
<trkpt lat="31.7814000" lon="34.9834600">
<ele>285.800018</ele>
<time>2021-07-21T10:37:03.892Z</time>
</trkpt>
<trkpt lat="31.7815700" lon="34.9833400">
<ele>282.740021</ele>
<time>2021-07-21T10:37:03.892Z</time>
</trkpt>
<trkpt lat="31.7818500" lon="34.9832500">
<ele>279.119995</ele>
<time>2021-07-21T10:37:03.892Z</time>
</trkpt>
<trkpt lat="31.7820000" lon="34.9831700">
<ele>277.679993</ele>
<time>2021-07-21T10:37:03.892Z</time>
</trkpt>
<trkpt lat="31.7821700" lon="34.9830700">
<ele>276.420013</ele>
<time>2021-07-21T10:37:03.893Z</time>
</trkpt>
<trkpt lat="31.7823500" lon="34.9830400">
<ele>273.640015</ele>
<time>2021-07-21T10:37:03.893Z</time>
</trkpt>
<trkpt lat="31.7824200" lon="34.9826800">
<ele>271.740021</ele>
<time>2021-07-21T10:37:03.893Z</time>
</trkpt>
<trkpt lat="31.7827900" lon="34.9823400">
<ele>263.580017</ele>
<time>2021-07-21T10:37:03.893Z</time>
</trkpt>
<trkpt lat="31.7837600" lon="34.9816800">
<ele>263.520020</ele>
<time>2021-07-21T10:37:03.893Z</time>
</trkpt>
<trkpt lat="31.7838800" lon="34.9816200">
<ele>260.750000</ele>
<time>2021-07-21T10:37:03.893Z</time>
</trkpt>
<trkpt lat="31.7842800" lon="34.9814600">
<ele>252.070007</ele>
<time>2021-07-21T10:37:03.893Z</time>
</trkpt>
<trkpt lat="31.7844400" lon="34.9813800">
<ele>248.190002</ele>
<time>2021-07-21T10:37:03.893Z</time>
</trkpt>
<trkpt lat="31.7850000" lon="34.9812500">
<ele>248.000000</ele>
<time>2021-07-21T10:37:03.893Z</time>
</trkpt>
<trkpt lat="31.7860300" lon="34.9810700">
<ele>239.279999</ele>
<time>2021-07-21T10:37:03.893Z</time>
</trkpt>
<trkpt lat="31.7864700" lon="34.9810400">
<ele>238.210007</ele>
<time>2021-07-21T10:37:03.893Z</time>
</trkpt>
<trkpt lat="31.7867800" lon="34.9810700">
<ele>236.309998</ele>
<time>2021-07-21T10:37:03.893Z</time>
</trkpt>
<trkpt lat="31.7870500" lon="34.9811600">
<ele>232.290009</ele>
<time>2021-07-21T10:37:03.893Z</time>
</trkpt>
<trkpt lat="31.7871300" lon="34.9811600">
<ele>231.389999</ele>
<time>2021-07-21T10:37:03.893Z</time>
</trkpt>
<trkpt lat="31.7872200" lon="34.9811300">
<ele>230.170013</ele>
<time>2021-07-21T10:37:03.893Z</time>
</trkpt>
<trkpt lat="31.7874000" lon="34.9809700">
<ele>228.950012</ele>
<time>2021-07-21T10:37:03.893Z</time>
</trkpt>
<trkpt lat="31.7877600" lon="34.9802600">
<ele>225.639999</ele>
<time>2021-07-21T10:37:03.893Z</time>
</trkpt>
<trkpt lat="31.7879300" lon="34.9800400">
<ele>223.740005</ele>
<time>2021-07-21T10:37:03.893Z</time>
</trkpt>
<trkpt lat="31.7880700" lon="34.9798800">
<ele>222.830002</ele>
<time>2021-07-21T10:37:03.893Z</time>
</trkpt>
<trkpt lat="31.7881900" lon="34.9797800">
<ele>222.530014</ele>
<time>2021-07-21T10:37:03.893Z</time>
</trkpt>
<trkpt lat="31.7884300" lon="34.9796200">
<ele>222.120010</ele>
<time>2021-07-21T10:37:03.894Z</time>
</trkpt>
<trkpt lat="31.7886200" lon="34.9795000">
<ele>219.940002</ele>
<time>2021-07-21T10:37:03.894Z</time>
</trkpt>
<trkpt lat="31.7888100" lon="34.9793800">
<ele>218.029999</ele>
<time>2021-07-21T10:37:03.894Z</time>
</trkpt>
<trkpt lat="31.7890800" lon="34.9792700">
<ele>218.850006</ele>
<time>2021-07-21T10:37:03.894Z</time>
</trkpt>
<trkpt lat="31.7895000" lon="34.9791200">
<ele>222.899994</ele>
<time>2021-07-21T10:37:03.894Z</time>
</trkpt>
<trkpt lat="31.7897100" lon="34.9791000">
<ele>224.629990</ele>
<time>2021-07-21T10:37:03.894Z</time>
</trkpt>
<trkpt lat="31.7899200" lon="34.9790700">
<ele>225.760010</ele>
<time>2021-07-21T10:37:03.894Z</time>
</trkpt>
<trkpt lat="31.7902100" lon="34.9790600">
<ele>223.709991</ele>
<time>2021-07-21T10:37:03.894Z</time>
</trkpt>
<trkpt lat="31.7907700" lon="34.9790800">
<ele>216.250000</ele>
<time>2021-07-21T10:37:03.894Z</time>
</trkpt>
<trkpt lat="31.7914400" lon="34.9790900">
<ele>215.129990</ele>
<time>2021-07-21T10:37:03.894Z</time>
</trkpt>
<trkpt lat="31.7916400" lon="34.9790900">
<ele>213.889999</ele>
<time>2021-07-21T10:37:03.894Z</time>
</trkpt>
<trkpt lat="31.7918500" lon="34.9790600">
<ele>210.820007</ele>
<time>2021-07-21T10:37:03.894Z</time>
</trkpt>
<trkpt lat="31.7920500" lon="34.9789000">
<ele>209.150009</ele>
<time>2021-07-21T10:37:03.894Z</time>
</trkpt>
<trkpt lat="31.7922200" lon="34.9788200">
<ele>209.250000</ele>
<time>2021-07-21T10:37:03.894Z</time>
</trkpt>
<trkpt lat="31.7924800" lon="34.9786800">
<ele>209.199997</ele>
<time>2021-07-21T10:37:03.894Z</time>
</trkpt>
<trkpt lat="31.7928200" lon="34.9784000">
<ele>206.739990</ele>
<time>2021-07-21T10:37:03.895Z</time>
</trkpt>
<trkpt lat="31.7931900" lon="34.9780600">
<ele>210.410004</ele>
<time>2021-07-21T10:37:03.895Z</time>
</trkpt>
<trkpt lat="31.7935700" lon="34.9776000">
<ele>213.470001</ele>
<time>2021-07-21T10:37:03.895Z</time>
</trkpt>
<trkpt lat="31.7940900" lon="34.9770300">
<ele>205.220001</ele>
<time>2021-07-21T10:37:03.895Z</time>
</trkpt>
<trkpt lat="31.7947400" lon="34.9762500">
<ele>199.150009</ele>
<time>2021-07-21T10:37:03.895Z</time>
</trkpt>
<trkpt lat="31.7947600" lon="34.9762700">
<ele>198.440002</ele>
<time>2021-07-21T10:37:03.895Z</time>
</trkpt>
<trkpt lat="31.7947800" lon="34.9762800">
<ele>197.930008</ele>
<time>2021-07-21T10:37:03.895Z</time>
</trkpt>
<trkpt lat="31.7948100" lon="34.9762800">
<ele>197.389999</ele>
<time>2021-07-21T10:37:03.895Z</time>
</trkpt>
<trkpt lat="31.7948400" lon="34.9762700">
<ele>196.959991</ele>
<time>2021-07-21T10:37:03.895Z</time>
</trkpt>
<trkpt lat="31.7948600" lon="34.9762500">
<ele>196.770004</ele>
<time>2021-07-21T10:37:03.895Z</time>
</trkpt>
<trkpt lat="31.7948700" lon="34.9762200">
<ele>196.830002</ele>
<time>2021-07-21T10:37:03.895Z</time>
</trkpt>
<trkpt lat="31.7948700" lon="34.9762200">
<ele>196.830002</ele>
<time>2021-07-21T10:37:03.895Z</time>
</trkpt>
<trkpt lat="31.7948700" lon="34.9762200">
<ele>196.830002</ele>
<time>2021-07-21T10:37:03.895Z</time>
</trkpt>
<trkpt lat="31.7950900" lon="34.9763200">
<ele>195.380005</ele>
<time>2021-07-21T10:37:03.895Z</time>
</trkpt>
<trkpt lat="31.7951200" lon="34.9763600">
<ele>196.030014</ele>
<time>2021-07-21T10:37:03.895Z</time>
</trkpt>
<trkpt lat="31.7952800" lon="34.9764700">
<ele>199.869995</ele>
<time>2021-07-21T10:37:03.895Z</time>
</trkpt>
<trkpt lat="31.7953000" lon="34.9766700">
<ele>201.949997</ele>
<time>2021-07-21T10:37:03.895Z</time>
</trkpt>
<trkpt lat="31.7953200" lon="34.9769600">
<ele>204.230011</ele>
<time>2021-07-21T10:37:03.895Z</time>
</trkpt>
<trkpt lat="31.7955100" lon="34.9771000">
<ele>206.329987</ele>
<time>2021-07-21T10:37:03.895Z</time>
</trkpt>
<trkpt lat="31.7956300" lon="34.9771800">
<ele>207.630005</ele>
<time>2021-07-21T10:37:03.895Z</time>
</trkpt>
<trkpt lat="31.7958500" lon="34.9772700">
<ele>208.530014</ele>
<time>2021-07-21T10:37:03.895Z</time>
</trkpt>
<trkpt lat="31.7959700" lon="34.9772800">
<ele>209.989990</ele>
<time>2021-07-21T10:37:03.895Z</time>
</trkpt>
<trkpt lat="31.7960700" lon="34.9772600">
<ele>210.940002</ele>
<time>2021-07-21T10:37:03.895Z</time>
</trkpt>
<trkpt lat="31.7961700" lon="34.9772200">
<ele>212.250000</ele>
<time>2021-07-21T10:37:03.895Z</time>
</trkpt>
<trkpt lat="31.7962800" lon="34.9771400">
<ele>213.880005</ele>
<time>2021-07-21T10:37:03.895Z</time>
</trkpt>
<trkpt lat="31.7965400" lon="34.9769100">
<ele>215.440002</ele>
<time>2021-07-21T10:37:03.896Z</time>
</trkpt>
<trkpt lat="31.7972000" lon="34.9762800">
<ele>215.779999</ele>
<time>2021-07-21T10:37:03.896Z</time>
</trkpt>
<trkpt lat="31.7974900" lon="34.9760200">
<ele>217.900009</ele>
<time>2021-07-21T10:37:03.896Z</time>
</trkpt>
<trkpt lat="31.7980200" lon="34.9758000">
<ele>224.720001</ele>
<time>2021-07-21T10:37:03.896Z</time>
</trkpt>
<trkpt lat="31.7981900" lon="34.9758000">
<ele>226.400009</ele>
<time>2021-07-21T10:37:03.896Z</time>
</trkpt>
<trkpt lat="31.7983300" lon="34.9758200">
<ele>227.869995</ele>
<time>2021-07-21T10:37:03.896Z</time>
</trkpt>
<trkpt lat="31.7984400" lon="34.9758600">
<ele>227.580002</ele>
<time>2021-07-21T10:37:03.896Z</time>
</trkpt>
<trkpt lat="31.7986200" lon="34.9759600">
<ele>226.380005</ele>
<time>2021-07-21T10:37:03.896Z</time>
</trkpt>
<trkpt lat="31.7987200" lon="34.9760500">
<ele>224.479996</ele>
<time>2021-07-21T10:37:03.896Z</time>
</trkpt>
<trkpt lat="31.7988300" lon="34.9761600">
<ele>223.199997</ele>
<time>2021-07-21T10:37:03.896Z</time>
</trkpt>
<trkpt lat="31.7990100" lon="34.9763900">
<ele>222.690002</ele>
<time>2021-07-21T10:37:03.896Z</time>
</trkpt>
<trkpt lat="31.7991400" lon="34.9765800">
<ele>221.910004</ele>
<time>2021-07-21T10:37:03.896Z</time>
</trkpt>
<trkpt lat="31.7992400" lon="34.9767200">
<ele>221.820007</ele>
<time>2021-07-21T10:37:03.896Z</time>
</trkpt>
<trkpt lat="31.7995500" lon="34.9771500">
<ele>226.779999</ele>
<time>2021-07-21T10:37:03.896Z</time>
</trkpt>
<trkpt lat="31.7996900" lon="34.9773300">
<ele>227.119995</ele>
<time>2021-07-21T10:37:03.896Z</time>
</trkpt>
<trkpt lat="31.7998300" lon="34.9774700">
<ele>225.100006</ele>
<time>2021-07-21T10:37:03.896Z</time>
</trkpt>
<trkpt lat="31.7999300" lon="34.9775400">
<ele>223.080002</ele>
<time>2021-07-21T10:37:03.896Z</time>
</trkpt>
<trkpt lat="31.8000800" lon="34.9776000">
<ele>220.300003</ele>
<time>2021-07-21T10:37:03.896Z</time>
</trkpt>
<trkpt lat="31.8002700" lon="34.9775700">
<ele>217.130005</ele>
<time>2021-07-21T10:37:03.896Z</time>
</trkpt>
<trkpt lat="31.8004300" lon="34.9774700">
<ele>215.949997</ele>
<time>2021-07-21T10:37:03.896Z</time>
</trkpt>
<trkpt lat="31.8011100" lon="34.9768300">
<ele>225.149994</ele>
<time>2021-07-21T10:37:03.896Z</time>
</trkpt>
<trkpt lat="31.8013600" lon="34.9765700">
<ele>224.020004</ele>
<time>2021-07-21T10:37:03.896Z</time>
</trkpt>
<trkpt lat="31.8014000" lon="34.9765400">
<ele>224.099991</ele>
<time>2021-07-21T10:37:03.896Z</time>
</trkpt>
<trkpt lat="31.8019300" lon="34.9759600">
<ele>224.830002</ele>
<time>2021-07-21T10:37:03.896Z</time>
</trkpt>
<trkpt lat="31.8021600" lon="34.9756100">
<ele>224.679993</ele>
<time>2021-07-21T10:37:03.896Z</time>
</trkpt>
<trkpt lat="31.8022500" lon="34.9754400">
<ele>222.500000</ele>
<time>2021-07-21T10:37:03.896Z</time>
</trkpt>
<trkpt lat="31.8026400" lon="34.9747200">
<ele>215.000000</ele>
<time>2021-07-21T10:37:03.896Z</time>
</trkpt>
<trkpt lat="31.8027600" lon="34.9743300">
<ele>214.379990</ele>
<time>2021-07-21T10:37:03.896Z</time>
</trkpt>
<trkpt lat="31.8029600" lon="34.9736000">
<ele>209.020004</ele>
<time>2021-07-21T10:37:03.897Z</time>
</trkpt>
<trkpt lat="31.8031000" lon="34.9731000">
<ele>203.480011</ele>
<time>2021-07-21T10:37:03.897Z</time>
</trkpt>
<trkpt lat="31.8033400" lon="34.9724500">
<ele>196.180008</ele>
<time>2021-07-21T10:37:03.897Z</time>
</trkpt>
<trkpt lat="31.8035200" lon="34.9720400">
<ele>199.179993</ele>
<time>2021-07-21T10:37:03.897Z</time>
</trkpt>
<trkpt lat="31.8037600" lon="34.9715300">
<ele>196.750000</ele>
<time>2021-07-21T10:37:03.897Z</time>
</trkpt>
<trkpt lat="31.8039600" lon="34.9711800">
<ele>190.949997</ele>
<time>2021-07-21T10:37:03.897Z</time>
</trkpt>
<trkpt lat="31.8041600" lon="34.9711800">
<ele>193.650009</ele>
<time>2021-07-21T10:37:03.897Z</time>
</trkpt>
<trkpt lat="31.8043600" lon="34.9714000">
<ele>191.850006</ele>
<time>2021-07-21T10:37:03.897Z</time>
</trkpt>
<trkpt lat="31.8044400" lon="34.9714800">
<ele>190.419998</ele>
<time>2021-07-21T10:37:03.897Z</time>
</trkpt>
<trkpt lat="31.8045200" lon="34.9715000">
<ele>189.370010</ele>
<time>2021-07-21T10:37:03.897Z</time>
</trkpt>
<trkpt lat="31.8046200" lon="34.9714700">
<ele>188.029999</ele>
<time>2021-07-21T10:37:03.897Z</time>
</trkpt>
<trkpt lat="31.8048500" lon="34.9713300">
<ele>190.850006</ele>
<time>2021-07-21T10:37:03.897Z</time>
</trkpt>
<trkpt lat="31.8050900" lon="34.9713100">
<ele>194.409988</ele>
<time>2021-07-21T10:37:03.897Z</time>
</trkpt>
<trkpt lat="31.8057300" lon="34.9713100">
<ele>199.179993</ele>
<time>2021-07-21T10:37:03.897Z</time>
</trkpt>
<trkpt lat="31.8059600" lon="34.9713100">
<ele>199.020004</ele>
<time>2021-07-21T10:37:03.897Z</time>
</trkpt>
<trkpt lat="31.8061900" lon="34.9712900">
<ele>196.679993</ele>
<time>2021-07-21T10:37:03.897Z</time>
</trkpt>
<trkpt lat="31.8064900" lon="34.9710600">
<ele>193.970001</ele>
<time>2021-07-21T10:37:03.897Z</time>
</trkpt>
<trkpt lat="31.8066200" lon="34.9709000">
<ele>196.300003</ele>
<time>2021-07-21T10:37:03.897Z</time>
</trkpt>
<trkpt lat="31.8066800" lon="34.9708600">
<ele>196.780014</ele>
<time>2021-07-21T10:37:03.897Z</time>
</trkpt>
<trkpt lat="31.8067800" lon="34.9706800">
<ele>200.079987</ele>
<time>2021-07-21T10:37:03.897Z</time>
</trkpt>
<trkpt lat="31.8068900" lon="34.9703200">
<ele>202.210007</ele>
<time>2021-07-21T10:37:03.897Z</time>
</trkpt>
<trkpt lat="31.8069500" lon="34.9702100">
<ele>202.569992</ele>
<time>2021-07-21T10:37:03.897Z</time>
</trkpt>
<trkpt lat="31.8070500" lon="34.9700900">
<ele>205.129990</ele>
<time>2021-07-21T10:37:03.897Z</time>
</trkpt>
<trkpt lat="31.8071500" lon="34.9700300">
<ele>207.399994</ele>
<time>2021-07-21T10:37:03.897Z</time>
</trkpt>
<trkpt lat="31.8073300" lon="34.9700400">
<ele>210.229996</ele>
<time>2021-07-21T10:37:03.897Z</time>
</trkpt>
<trkpt lat="31.8074300" lon="34.9700700">
<ele>211.610001</ele>
<time>2021-07-21T10:37:03.897Z</time>
</trkpt>
<trkpt lat="31.8079300" lon="34.9703400">
<ele>215.120010</ele>
<time>2021-07-21T10:37:03.897Z</time>
</trkpt>
<trkpt lat="31.8081700" lon="34.9704300">
<ele>216.130005</ele>
<time>2021-07-21T10:37:03.898Z</time>
</trkpt>
<trkpt lat="31.8083500" lon="34.9704800">
<ele>217.549988</ele>
<time>2021-07-21T10:37:03.898Z</time>
</trkpt>
<trkpt lat="31.8085900" lon="34.9704600">
<ele>218.870010</ele>
<time>2021-07-21T10:37:03.898Z</time>
</trkpt>
<trkpt lat="31.8085900" lon="34.9704000">
<ele>218.839996</ele>
<time>2021-07-21T10:37:03.898Z</time>
</trkpt>
<trkpt lat="31.8085300" lon="34.9702000">
<ele>218.959991</ele>
<time>2021-07-21T10:37:03.898Z</time>
</trkpt>
<trkpt lat="31.8082500" lon="34.9693300">
<ele>220.110001</ele>
<time>2021-07-21T10:37:03.898Z</time>
</trkpt>
<trkpt lat="31.8080000" lon="34.9687200">
<ele>218.389999</ele>
<time>2021-07-21T10:37:03.898Z</time>
</trkpt>
<trkpt lat="31.8079400" lon="34.9685900">
<ele>217.880005</ele>
<time>2021-07-21T10:37:03.898Z</time>
</trkpt>
<trkpt lat="31.8077900" lon="34.9681900">
<ele>215.879990</ele>
<time>2021-07-21T10:37:03.898Z</time>
</trkpt>
<trkpt lat="31.8077300" lon="34.9679400">
<ele>213.970016</ele>
<time>2021-07-21T10:37:03.898Z</time>
</trkpt>
<trkpt lat="31.8077300" lon="34.9679400">
<ele>213.970016</ele>
<time>2021-07-21T10:37:03.898Z</time>
</trkpt>
<trkpt lat="31.8077000" lon="34.9677800">
<ele>213.009995</ele>
<time>2021-07-21T10:37:03.898Z</time>
</trkpt>
<trkpt lat="31.8075900" lon="34.9669900">
<ele>213.949997</ele>
<time>2021-07-21T10:37:03.898Z</time>
</trkpt>
<trkpt lat="31.8075600" lon="34.9666700">
<ele>214.559998</ele>
<time>2021-07-21T10:37:03.898Z</time>
</trkpt>
<trkpt lat="31.8075300" lon="34.9663400">
<ele>216.440002</ele>
<time>2021-07-21T10:37:03.898Z</time>
</trkpt>
<trkpt lat="31.8075300" lon="34.9658500">
<ele>219.899994</ele>
<time>2021-07-21T10:37:03.898Z</time>
</trkpt>
<trkpt lat="31.8074400" lon="34.9656500">
<ele>222.630005</ele>
<time>2021-07-21T10:37:03.898Z</time>
</trkpt>
<trkpt lat="31.8073300" lon="34.9652900">
<ele>227.699997</ele>
<time>2021-07-21T10:37:03.898Z</time>
</trkpt>
<trkpt lat="31.8072800" lon="34.9649300">
<ele>229.080002</ele>
<time>2021-07-21T10:37:03.898Z</time>
</trkpt>
<trkpt lat="31.8072500" lon="34.9647500">
<ele>228.000000</ele>
<time>2021-07-21T10:37:03.898Z</time>
</trkpt>
<trkpt lat="31.8071700" lon="34.9646500">
<ele>226.960007</ele>
<time>2021-07-21T10:37:03.898Z</time>
</trkpt>
<trkpt lat="31.8071000" lon="34.9645700">
<ele>225.829987</ele>
<time>2021-07-21T10:37:03.898Z</time>
</trkpt>
<trkpt lat="31.8070500" lon="34.9644800">
<ele>224.940002</ele>
<time>2021-07-21T10:37:03.898Z</time>
</trkpt>
<trkpt lat="31.8070500" lon="34.9643600">
<ele>224.110001</ele>
<time>2021-07-21T10:37:03.898Z</time>
</trkpt>
<trkpt lat="31.8071600" lon="34.9638400">
<ele>221.370010</ele>
<time>2021-07-21T10:37:03.898Z</time>
</trkpt>
<trkpt lat="31.8072100" lon="34.9635400">
<ele>220.720001</ele>
<time>2021-07-21T10:37:03.898Z</time>
</trkpt>
<trkpt lat="31.8072300" lon="34.9632400">
<ele>219.819992</ele>
<time>2021-07-21T10:37:03.898Z</time>
</trkpt>
<trkpt lat="31.8072300" lon="34.9629500">
<ele>218.740005</ele>
<time>2021-07-21T10:37:03.898Z</time>
</trkpt>
<trkpt lat="31.8072000" lon="34.9627100">
<ele>216.830002</ele>
<time>2021-07-21T10:37:03.899Z</time>
</trkpt>
<trkpt lat="31.8071000" lon="34.9621800">
<ele>210.970001</ele>
<time>2021-07-21T10:37:03.899Z</time>
</trkpt>
<trkpt lat="31.8070900" lon="34.9620000">
<ele>208.360001</ele>
<time>2021-07-21T10:37:03.899Z</time>
</trkpt>
<trkpt lat="31.8071100" lon="34.9618000">
<ele>206.750000</ele>
<time>2021-07-21T10:37:03.899Z</time>
</trkpt>
<trkpt lat="31.8071400" lon="34.9616700">
<ele>206.139999</ele>
<time>2021-07-21T10:37:03.899Z</time>
</trkpt>
<trkpt lat="31.8071800" lon="34.9615300">
<ele>206.470001</ele>
<time>2021-07-21T10:37:03.899Z</time>
</trkpt>
<trkpt lat="31.8072300" lon="34.9613600">
<ele>207.160004</ele>
<time>2021-07-21T10:37:03.899Z</time>
</trkpt>
<trkpt lat="31.8072400" lon="34.9612200">
<ele>207.740005</ele>
<time>2021-07-21T10:37:03.899Z</time>
</trkpt>
<trkpt lat="31.8072400" lon="34.9610800">
<ele>208.009995</ele>
<time>2021-07-21T10:37:03.899Z</time>
</trkpt>
<trkpt lat="31.8072100" lon="34.9609400">
<ele>207.160004</ele>
<time>2021-07-21T10:37:03.899Z</time>
</trkpt>
<trkpt lat="31.8071800" lon="34.9608300">
<ele>206.200012</ele>
<time>2021-07-21T10:37:03.899Z</time>
</trkpt>
<trkpt lat="31.8071400" lon="34.9607600">
<ele>204.779999</ele>
<time>2021-07-21T10:37:03.899Z</time>
</trkpt>
<trkpt lat="31.8070900" lon="34.9607000">
<ele>203.610016</ele>
<time>2021-07-21T10:37:03.899Z</time>
</trkpt>
<trkpt lat="31.8070200" lon="34.9606400">
<ele>202.600006</ele>
<time>2021-07-21T10:37:03.899Z</time>
</trkpt>
<trkpt lat="31.8069500" lon="34.9606000">
<ele>202.029999</ele>
<time>2021-07-21T10:37:03.899Z</time>
</trkpt>
<trkpt lat="31.8070400" lon="34.9605100">
<ele>202.130005</ele>
<time>2021-07-21T10:37:03.899Z</time>
</trkpt>
<trkpt lat="31.8075900" lon="34.9603400">
<ele>206.799988</ele>
<time>2021-07-21T10:37:03.899Z</time>
</trkpt>
<trkpt lat="31.8080800" lon="34.9600300">
<ele>203.650009</ele>
<time>2021-07-21T10:37:03.899Z</time>
</trkpt>
<trkpt lat="31.8089900" lon="34.9594900">
<ele>198.300003</ele>
<time>2021-07-21T10:37:03.899Z</time>
</trkpt>
<trkpt lat="31.8090600" lon="34.9594400">
<ele>196.940002</ele>
<time>2021-07-21T10:37:03.899Z</time>
</trkpt>
<trkpt lat="31.8092800" lon="34.9591900">
<ele>199.449997</ele>
<time>2021-07-21T10:37:03.899Z</time>
</trkpt>
<trkpt lat="31.8097000" lon="34.9582700">
<ele>205.170013</ele>
<time>2021-07-21T10:37:03.899Z</time>
</trkpt>
<trkpt lat="31.8099500" lon="34.9578200">
<ele>202.119995</ele>
<time>2021-07-21T10:37:03.899Z</time>
</trkpt>
<trkpt lat="31.8102700" lon="34.9573300">
<ele>196.339996</ele>
<time>2021-07-21T10:37:03.899Z</time>
</trkpt>
<trkpt lat="31.8104300" lon="34.9567200">
<ele>193.079987</ele>
<time>2021-07-21T10:37:03.899Z</time>
</trkpt>
<trkpt lat="31.8106500" lon="34.9562900">
<ele>191.809998</ele>
<time>2021-07-21T10:37:03.899Z</time>
</trkpt>
<trkpt lat="31.8107700" lon="34.9559700">
<ele>192.739990</ele>
<time>2021-07-21T10:37:03.899Z</time>
</trkpt>
<trkpt lat="31.8108700" lon="34.9557900">
<ele>193.379990</ele>
<time>2021-07-21T10:37:03.899Z</time>
</trkpt>
<trkpt lat="31.8111100" lon="34.9555300">
<ele>193.010010</ele>
<time>2021-07-21T10:37:03.899Z</time>
</trkpt>
<trkpt lat="31.8113700" lon="34.9553000">
<ele>194.009995</ele>
<time>2021-07-21T10:37:03.899Z</time>
</trkpt>
<trkpt lat="31.8114400" lon="34.9552000">
<ele>194.910004</ele>
<time>2021-07-21T10:37:03.900Z</time>
</trkpt>
<trkpt lat="31.8116700" lon="34.9548600">
<ele>195.529999</ele>
<time>2021-07-21T10:37:03.900Z</time>
</trkpt>
<trkpt lat="31.8120000" lon="34.9543600">
<ele>200.089996</ele>
<time>2021-07-21T10:37:03.900Z</time>
</trkpt>
<trkpt lat="31.8120700" lon="34.9541900">
<ele>202.509995</ele>
<time>2021-07-21T10:37:03.900Z</time>
</trkpt>
<trkpt lat="31.8121600" lon="34.9542900">
<ele>203.180008</ele>
<time>2021-07-21T10:37:03.900Z</time>
</trkpt>
<trkpt lat="31.8122700" lon="34.9544900">
<ele>202.130005</ele>
<time>2021-07-21T10:37:03.900Z</time>
</trkpt>
<trkpt lat="31.8123100" lon="34.9545800">
<ele>201.660004</ele>
<time>2021-07-21T10:37:03.900Z</time>
</trkpt>
<trkpt lat="31.8124600" lon="34.9547100">
<ele>201.020004</ele>
<time>2021-07-21T10:37:03.900Z</time>
</trkpt>
<trkpt lat="31.8126300" lon="34.9547800">
<ele>202.689987</ele>
<time>2021-07-21T10:37:03.900Z</time>
</trkpt>
<trkpt lat="31.8127900" lon="34.9549400">
<ele>202.600006</ele>
<time>2021-07-21T10:37:03.900Z</time>
</trkpt>
<trkpt lat="31.8129100" lon="34.9548500">
<ele>203.139984</ele>
<time>2021-07-21T10:37:03.900Z</time>
</trkpt>
<trkpt lat="31.8130700" lon="34.9547400">
<ele>203.699997</ele>
<time>2021-07-21T10:37:03.900Z</time>
</trkpt>
<trkpt lat="31.8132500" lon="34.9547100">
<ele>202.799988</ele>
<time>2021-07-21T10:37:03.900Z</time>
</trkpt>
<trkpt lat="31.8133500" lon="34.9546500">
<ele>202.940002</ele>
<time>2021-07-21T10:37:03.900Z</time>
</trkpt>
<trkpt lat="31.8134600" lon="34.9545700">
<ele>203.529999</ele>
<time>2021-07-21T10:37:03.900Z</time>
</trkpt>
<trkpt lat="31.8135700" lon="34.9544500">
<ele>205.050003</ele>
<time>2021-07-21T10:37:03.900Z</time>
</trkpt>
<trkpt lat="31.8136200" lon="34.9543600">
<ele>204.619995</ele>
<time>2021-07-21T10:37:03.900Z</time>
</trkpt>
<trkpt lat="31.8136400" lon="34.9542800">
<ele>204.139999</ele>
<time>2021-07-21T10:37:03.900Z</time>
</trkpt>
<trkpt lat="31.8136900" lon="34.9537700">
<ele>201.599991</ele>
<time>2021-07-21T10:37:03.900Z</time>
</trkpt>
<trkpt lat="31.8136500" lon="34.9534300">
<ele>202.179993</ele>
<time>2021-07-21T10:37:03.900Z</time>
</trkpt>
<trkpt lat="31.8136300" lon="34.9530900">
<ele>202.799988</ele>
<time>2021-07-21T10:37:03.900Z</time>
</trkpt>
<trkpt lat="31.8135900" lon="34.9529300">
<ele>202.960007</ele>
<time>2021-07-21T10:37:03.900Z</time>
</trkpt>
<trkpt lat="31.8133700" lon="34.9523500">
<ele>207.389999</ele>
<time>2021-07-21T10:37:03.900Z</time>
</trkpt>
<trkpt lat="31.8132700" lon="34.9521200">
<ele>206.720001</ele>
<time>2021-07-21T10:37:03.900Z</time>
</trkpt>
<trkpt lat="31.8132600" lon="34.9520000">
<ele>205.440002</ele>
<time>2021-07-21T10:37:03.900Z</time>
</trkpt>
<trkpt lat="31.8133000" lon="34.9515800">
<ele>199.869995</ele>
<time>2021-07-21T10:37:03.900Z</time>
</trkpt>
<trkpt lat="31.8132600" lon="34.9513300">
<ele>196.839996</ele>
<time>2021-07-21T10:37:03.900Z</time>
</trkpt>
<trkpt lat="31.8132800" lon="34.9512100">
<ele>195.550003</ele>
<time>2021-07-21T10:37:03.900Z</time>
</trkpt>
<trkpt lat="31.8134200" lon="34.9509600">
<ele>193.039993</ele>
<time>2021-07-21T10:37:03.900Z</time>
</trkpt>
<trkpt lat="31.8136300" lon="34.9505100">
<ele>191.470001</ele>
<time>2021-07-21T10:37:03.900Z</time>
</trkpt>
<trkpt lat="31.8136900" lon="34.9504100">
<ele>192.269989</ele>
<time>2021-07-21T10:37:03.900Z</time>
</trkpt>
<trkpt lat="31.8137500" lon="34.9503500">
<ele>192.479996</ele>
<time>2021-07-21T10:37:03.901Z</time>
</trkpt>
<trkpt lat="31.8137900" lon="34.9503400">
<ele>192.330002</ele>
<time>2021-07-21T10:37:03.901Z</time>
</trkpt>
<trkpt lat="31.8138700" lon="34.9504000">
<ele>191.639999</ele>
<time>2021-07-21T10:37:03.901Z</time>
</trkpt>
<trkpt lat="31.8139500" lon="34.9504700">
<ele>190.510010</ele>
<time>2021-07-21T10:37:03.901Z</time>
</trkpt>
<trkpt lat="31.8141000" lon="34.9505300">
<ele>188.669998</ele>
<time>2021-07-21T10:37:03.901Z</time>
</trkpt>
<trkpt lat="31.8142600" lon="34.9505000">
<ele>185.379990</ele>
<time>2021-07-21T10:37:03.901Z</time>
</trkpt>
<trkpt lat="31.8143600" lon="34.9504300">
<ele>182.360001</ele>
<time>2021-07-21T10:37:03.901Z</time>
</trkpt>
<trkpt lat="31.8145400" lon="34.9502200">
<ele>178.439987</ele>
<time>2021-07-21T10:37:03.901Z</time>
</trkpt>
<trkpt lat="31.8154200" lon="34.9493600">
<ele>171.070007</ele>
<time>2021-07-21T10:37:03.901Z</time>
</trkpt>
<trkpt lat="31.8154200" lon="34.9493600">
<ele>171.070007</ele>
<time>2021-07-21T10:37:03.901Z</time>
</trkpt>
<trkpt lat="31.8154200" lon="34.9493600">
<ele>171.070007</ele>
<time>2021-07-21T10:37:03.901Z</time>
</trkpt>
<trkpt lat="31.8154500" lon="34.9493300">
<ele>171.089996</ele>
<time>2021-07-21T10:37:03.901Z</time>
</trkpt>
<trkpt lat="31.8157300" lon="34.9489900">
<ele>166.620010</ele>
<time>2021-07-21T10:37:03.901Z</time>
</trkpt>
<trkpt lat="31.8160000" lon="34.9485400">
<ele>161.590012</ele>
<time>2021-07-21T10:37:03.901Z</time>
</trkpt>
<trkpt lat="31.8162600" lon="34.9482400">
<ele>159.819992</ele>
<time>2021-07-21T10:37:03.901Z</time>
</trkpt>
<trkpt lat="31.8163200" lon="34.9481500">
<ele>159.500000</ele>
<time>2021-07-21T10:37:03.901Z</time>
</trkpt>
<trkpt lat="31.8165500" lon="34.9478800">
<ele>158.479996</ele>
<time>2021-07-21T10:37:03.901Z</time>
</trkpt>
<trkpt lat="31.8166200" lon="34.9477800">
<ele>157.360001</ele>
<time>2021-07-21T10:37:03.901Z</time>
</trkpt>
<trkpt lat="31.8167700" lon="34.9474000">
<ele>152.910004</ele>
<time>2021-07-21T10:37:03.901Z</time>
</trkpt>
<trkpt lat="31.8168900" lon="34.9471800">
<ele>151.229996</ele>
<time>2021-07-21T10:37:03.901Z</time>
</trkpt>
<trkpt lat="31.8169400" lon="34.9470700">
<ele>151.020004</ele>
<time>2021-07-21T10:37:03.901Z</time>
</trkpt>
<trkpt lat="31.8170500" lon="34.9469000">
<ele>151.639999</ele>
<time>2021-07-21T10:37:03.901Z</time>
</trkpt>
<trkpt lat="31.8172100" lon="34.9467000">
<ele>151.229996</ele>
<time>2021-07-21T10:37:03.901Z</time>
</trkpt>
<trkpt lat="31.8173200" lon="34.9465700">
<ele>150.669998</ele>
<time>2021-07-21T10:37:03.901Z</time>
</trkpt>
<trkpt lat="31.8174200" lon="34.9465000">
<ele>151.080002</ele>
<time>2021-07-21T10:37:03.901Z</time>
</trkpt>
<trkpt lat="31.8175200" lon="34.9464700">
<ele>151.970001</ele>
<time>2021-07-21T10:37:03.901Z</time>
</trkpt>
<trkpt lat="31.8177000" lon="34.9464600">
<ele>154.440002</ele>
<time>2021-07-21T10:37:03.901Z</time>
</trkpt>
<trkpt lat="31.8178400" lon="34.9464500">
<ele>156.029999</ele>
<time>2021-07-21T10:37:03.901Z</time>
</trkpt>
<trkpt lat="31.8180500" lon="34.9465200">
<ele>156.150009</ele>
<time>2021-07-21T10:37:03.902Z</time>
</trkpt>
<trkpt lat="31.8183000" lon="34.9465700">
<ele>155.360001</ele>
<time>2021-07-21T10:37:03.902Z</time>
</trkpt>
<trkpt lat="31.8186200" lon="34.9466200">
<ele>146.929993</ele>
<time>2021-07-21T10:37:03.902Z</time>
</trkpt>
<trkpt lat="31.8188000" lon="34.9466100">
<ele>145.449997</ele>
<time>2021-07-21T10:37:03.902Z</time>
</trkpt>
<trkpt lat="31.8199300" lon="34.9463800">
<ele>142.690002</ele>
<time>2021-07-21T10:37:03.902Z</time>
</trkpt>
<trkpt lat="31.8204900" lon="34.9462300">
<ele>140.099991</ele>
<time>2021-07-21T10:37:03.902Z</time>
</trkpt>
<trkpt lat="31.8206700" lon="34.9462100">
<ele>137.400009</ele>
<time>2021-07-21T10:37:03.902Z</time>
</trkpt>
<trkpt lat="31.8210700" lon="34.9462100">
<ele>138.080002</ele>
<time>2021-07-21T10:37:03.902Z</time>
</trkpt>
<trkpt lat="31.8214300" lon="34.9461600">
<ele>137.260010</ele>
<time>2021-07-21T10:37:03.902Z</time>
</trkpt>
<trkpt lat="31.8222800" lon="34.9460000">
<ele>135.979996</ele>
<time>2021-07-21T10:37:03.902Z</time>
</trkpt>
<trkpt lat="31.8223400" lon="34.9459700">
<ele>135.220001</ele>
<time>2021-07-21T10:37:03.902Z</time>
</trkpt>
<trkpt lat="31.8227100" lon="34.9457800">
<ele>130.729996</ele>
<time>2021-07-21T10:37:03.903Z</time>
</trkpt>
<trkpt lat="31.8233200" lon="34.9454100">
<ele>129.520004</ele>
<time>2021-07-21T10:37:03.903Z</time>
</trkpt>
<trkpt lat="31.8239900" lon="34.9448500">
<ele>129.449997</ele>
<time>2021-07-21T10:37:03.903Z</time>
</trkpt>
<trkpt lat="31.8241500" lon="34.9446800">
<ele>131.470001</ele>
<time>2021-07-21T10:37:03.903Z</time>
</trkpt>
<trkpt lat="31.8244200" lon="34.9443400">
<ele>133.839996</ele>
<time>2021-07-21T10:37:03.903Z</time>
</trkpt>
<trkpt lat="31.8246600" lon="34.9441400">
<ele>131.020004</ele>
<time>2021-07-21T10:37:03.903Z</time>
</trkpt>
<trkpt lat="31.8248300" lon="34.9438600">
<ele>129.449997</ele>
<time>2021-07-21T10:37:03.903Z</time>
</trkpt>
<trkpt lat="31.8249000" lon="34.9437800">
<ele>129.779999</ele>
<time>2021-07-21T10:37:03.903Z</time>
</trkpt>
<trkpt lat="31.8248900" lon="34.9436100">
<ele>130.000000</ele>
<time>2021-07-21T10:37:03.903Z</time>
</trkpt>
<trkpt lat="31.8248100" lon="34.9434700">
<ele>130.190002</ele>
<time>2021-07-21T10:37:03.903Z</time>
</trkpt>
<trkpt lat="31.8247300" lon="34.9432200">
<ele>131.760010</ele>
<time>2021-07-21T10:37:03.903Z</time>
</trkpt>
<trkpt lat="31.8245500" lon="34.9422000">
<ele>134.979996</ele>
<time>2021-07-21T10:37:03.903Z</time>
</trkpt>
<trkpt lat="31.8245300" lon="34.9421300">
<ele>134.259995</ele>
<time>2021-07-21T10:37:03.903Z</time>
</trkpt>
<trkpt lat="31.8244700" lon="34.9419600">
<ele>132.389999</ele>
<time>2021-07-21T10:37:03.903Z</time>
</trkpt>
<trkpt lat="31.8243800" lon="34.9418200">
<ele>132.380005</ele>
<time>2021-07-21T10:37:03.903Z</time>
</trkpt>
<trkpt lat="31.8240900" lon="34.9415200">
<ele>134.449997</ele>
<time>2021-07-21T10:37:03.903Z</time>
</trkpt>
<trkpt lat="31.8240300" lon="34.9414100">
<ele>134.650009</ele>
<time>2021-07-21T10:37:03.903Z</time>
</trkpt>
<trkpt lat="31.8239200" lon="34.9411500">
<ele>133.760010</ele>
<time>2021-07-21T10:37:03.903Z</time>
</trkpt>
<trkpt lat="31.8238200" lon="34.9409700">
<ele>134.740005</ele>
<time>2021-07-21T10:37:03.903Z</time>
</trkpt>
<trkpt lat="31.8234900" lon="34.9404700">
<ele>139.000000</ele>
<time>2021-07-21T10:37:03.903Z</time>
</trkpt>
<trkpt lat="31.8232800" lon="34.9400800">
<ele>138.479996</ele>
<time>2021-07-21T10:37:03.903Z</time>
</trkpt>
<trkpt lat="31.8231600" lon="34.9398600">
<ele>138.930008</ele>
<time>2021-07-21T10:37:03.903Z</time>
</trkpt>
<trkpt lat="31.8230300" lon="34.9395600">
<ele>138.650009</ele>
<time>2021-07-21T10:37:03.903Z</time>
</trkpt>
<trkpt lat="31.8229700" lon="34.9393600">
<ele>137.319992</ele>
<time>2021-07-21T10:37:03.903Z</time>
</trkpt>
<trkpt lat="31.8229700" lon="34.9391000">
<ele>134.089996</ele>
<time>2021-07-21T10:37:03.903Z</time>
</trkpt>
<trkpt lat="31.8230400" lon="34.9388700">
<ele>128.309998</ele>
<time>2021-07-21T10:37:03.903Z</time>
</trkpt>
<trkpt lat="31.8230900" lon="34.9387000">
<ele>125.980003</ele>
<time>2021-07-21T10:37:03.903Z</time>
</trkpt>
<trkpt lat="31.8231000" lon="34.9385700">
<ele>125.739998</ele>
<time>2021-07-21T10:37:03.903Z</time>
</trkpt>
<trkpt lat="31.8231000" lon="34.9384500">
<ele>127.329994</ele>
<time>2021-07-21T10:37:03.903Z</time>
</trkpt>
<trkpt lat="31.8230800" lon="34.9383200">
<ele>129.610001</ele>
<time>2021-07-21T10:37:03.903Z</time>
</trkpt>
<trkpt lat="31.8230200" lon="34.9381600">
<ele>133.520004</ele>
<time>2021-07-21T10:37:03.903Z</time>
</trkpt>
<trkpt lat="31.8228900" lon="34.9378700">
<ele>136.050003</ele>
<time>2021-07-21T10:37:03.903Z</time>
</trkpt>
<trkpt lat="31.8228900" lon="34.9378700">
<ele>136.050003</ele>
<time>2021-07-21T10:37:03.903Z</time>
</trkpt>
<trkpt lat="31.8228900" lon="34.9378700">
<ele>136.050003</ele>
<time>2021-07-21T10:37:03.903Z</time>
</trkpt>
<trkpt lat="31.8228000" lon="34.9376800">
<ele>135.919998</ele>
<time>2021-07-21T10:37:03.903Z</time>
</trkpt>
<trkpt lat="31.8227800" lon="34.9375500">
<ele>133.879990</ele>
<time>2021-07-21T10:37:03.903Z</time>
</trkpt>
<trkpt lat="31.8227900" lon="34.9374700">
<ele>132.899994</ele>
<time>2021-07-21T10:37:03.903Z</time>
</trkpt>
<trkpt lat="31.8228100" lon="34.9373900">
<ele>132.680008</ele>
<time>2021-07-21T10:37:03.903Z</time>
</trkpt>
<trkpt lat="31.8228600" lon="34.9373300">
<ele>132.050003</ele>
<time>2021-07-21T10:37:03.904Z</time>
</trkpt>
<trkpt lat="31.8229900" lon="34.9372600">
<ele>130.149994</ele>
<time>2021-07-21T10:37:03.904Z</time>
</trkpt>
<trkpt lat="31.8232700" lon="34.9372900">
<ele>126.420006</ele>
<time>2021-07-21T10:37:03.904Z</time>
</trkpt>
<trkpt lat="31.8234100" lon="34.9372300">
<ele>125.380005</ele>
<time>2021-07-21T10:37:03.904Z</time>
</trkpt>
<trkpt lat="31.8234800" lon="34.9371900">
<ele>125.179993</ele>
<time>2021-07-21T10:37:03.904Z</time>
</trkpt>
<trkpt lat="31.8235000" lon="34.9371500">
<ele>125.320000</ele>
<time>2021-07-21T10:37:03.904Z</time>
</trkpt>
<trkpt lat="31.8235300" lon="34.9369900">
<ele>126.259995</ele>
<time>2021-07-21T10:37:03.904Z</time>
</trkpt>
<trkpt lat="31.8235500" lon="34.9365200">
<ele>125.570000</ele>
<time>2021-07-21T10:37:03.904Z</time>
</trkpt>
<trkpt lat="31.8235400" lon="34.9361000">
<ele>125.220001</ele>
<time>2021-07-21T10:37:03.904Z</time>
</trkpt>
<trkpt lat="31.8235000" lon="34.9356300">
<ele>124.639999</ele>
<time>2021-07-21T10:37:03.904Z</time>
</trkpt>
<trkpt lat="31.8235100" lon="34.9354600">
<ele>125.200005</ele>
<time>2021-07-21T10:37:03.904Z</time>
</trkpt>
<trkpt lat="31.8235500" lon="34.9353500">
<ele>125.339996</ele>
<time>2021-07-21T10:37:03.904Z</time>
</trkpt>
<trkpt lat="31.8236100" lon="34.9353000">
<ele>124.930000</ele>
<time>2021-07-21T10:37:03.904Z</time>
</trkpt>
<trkpt lat="31.8237000" lon="34.9352500">
<ele>124.099998</ele>
<time>2021-07-21T10:37:03.904Z</time>
</trkpt>
<trkpt lat="31.8237700" lon="34.9351500">
<ele>123.809998</ele>
<time>2021-07-21T10:37:03.904Z</time>
</trkpt>
<trkpt lat="31.8237800" lon="34.9350200">
<ele>124.300003</ele>
<time>2021-07-21T10:37:03.904Z</time>
</trkpt>
<trkpt lat="31.8237700" lon="34.9346400">
<ele>125.660004</ele>
<time>2021-07-21T10:37:03.904Z</time>
</trkpt>
<trkpt lat="31.8237300" lon="34.9344300">
<ele>125.210007</ele>
<time>2021-07-21T10:37:03.904Z</time>
</trkpt>
<trkpt lat="31.8236400" lon="34.9341600">
<ele>126.089996</ele>
<time>2021-07-21T10:37:03.904Z</time>
</trkpt>
<trkpt lat="31.8235200" lon="34.9337100">
<ele>125.889999</ele>
<time>2021-07-21T10:37:03.904Z</time>
</trkpt>
<trkpt lat="31.8232800" lon="34.9330500">
<ele>127.000000</ele>
<time>2021-07-21T10:37:03.904Z</time>
</trkpt>
<trkpt lat="31.8229900" lon="34.9322300">
<ele>116.949997</ele>
<time>2021-07-21T10:37:03.904Z</time>
</trkpt>
<trkpt lat="31.8236700" lon="34.9318200">
<ele>122.419998</ele>
<time>2021-07-21T10:37:03.904Z</time>
</trkpt>
<trkpt lat="31.8239900" lon="34.9316500">
<ele>123.610001</ele>
<time>2021-07-21T10:37:03.904Z</time>
</trkpt>
<trkpt lat="31.8241500" lon="34.9315800">
<ele>122.770004</ele>
<time>2021-07-21T10:37:03.904Z</time>
</trkpt>
<trkpt lat="31.8247200" lon="34.9313100">
<ele>121.290001</ele>
<time>2021-07-21T10:37:03.904Z</time>
</trkpt>
<trkpt lat="31.8249400" lon="34.9312300">
<ele>124.150002</ele>
<time>2021-07-21T10:37:03.904Z</time>
</trkpt>
<trkpt lat="31.8249900" lon="34.9312000">
<ele>124.529999</ele>
<time>2021-07-21T10:37:03.905Z</time>
</trkpt>
<trkpt lat="31.8250300" lon="34.9311500">
<ele>124.259995</ele>
<time>2021-07-21T10:37:03.905Z</time>
</trkpt>
<trkpt lat="31.8250500" lon="34.9311000">
<ele>124.010002</ele>
<time>2021-07-21T10:37:03.905Z</time>
</trkpt>
<trkpt lat="31.8250500" lon="34.9310500">
<ele>124.059998</ele>
<time>2021-07-21T10:37:03.905Z</time>
</trkpt>
<trkpt lat="31.8250500" lon="34.9310000">
<ele>124.109993</ele>
<time>2021-07-21T10:37:03.905Z</time>
</trkpt>
<trkpt lat="31.8250300" lon="34.9309500">
<ele>124.330002</ele>
<time>2021-07-21T10:37:03.905Z</time>
</trkpt>
<trkpt lat="31.8250100" lon="34.9309100">
<ele>124.620003</ele>
<time>2021-07-21T10:37:03.905Z</time>
</trkpt>
<trkpt lat="31.8249700" lon="34.9308800">
<ele>124.709999</ele>
<time>2021-07-21T10:37:03.905Z</time>
</trkpt>
<trkpt lat="31.8249300" lon="34.9308600">
<ele>124.630005</ele>
<time>2021-07-21T10:37:03.905Z</time>
</trkpt>
<trkpt lat="31.8248800" lon="34.9308500">
<ele>124.480003</ele>
<time>2021-07-21T10:37:03.905Z</time>
</trkpt>
<trkpt lat="31.8248200" lon="34.9305300">
<ele>123.939995</ele>
<time>2021-07-21T10:37:03.905Z</time>
</trkpt>
<trkpt lat="31.8248100" lon="34.9303700">
<ele>123.540001</ele>
<time>2021-07-21T10:37:03.905Z</time>
</trkpt>
<trkpt lat="31.8248300" lon="34.9302600">
<ele>123.449997</ele>
<time>2021-07-21T10:37:03.905Z</time>
</trkpt>
<trkpt lat="31.8247600" lon="34.9302400">
<ele>123.270004</ele>
<time>2021-07-21T10:37:03.905Z</time>
</trkpt>
<trkpt lat="31.8246900" lon="34.9302100">
<ele>123.419998</ele>
<time>2021-07-21T10:37:03.905Z</time>
</trkpt>
<trkpt lat="31.8245200" lon="34.9299700">
<ele>124.320000</ele>
<time>2021-07-21T10:37:03.905Z</time>
</trkpt>
<trkpt lat="31.8242400" lon="34.9294600">
<ele>130.119995</ele>
<time>2021-07-21T10:37:03.905Z</time>
</trkpt>
<trkpt lat="31.8240000" lon="34.9289500">
<ele>131.930008</ele>
<time>2021-07-21T10:37:03.905Z</time>
</trkpt>
<trkpt lat="31.8238500" lon="34.9285100">
<ele>128.130005</ele>
<time>2021-07-21T10:37:03.905Z</time>
</trkpt>
<trkpt lat="31.8236900" lon="34.9279600">
<ele>125.339996</ele>
<time>2021-07-21T10:37:03.905Z</time>
</trkpt>
<trkpt lat="31.8232000" lon="34.9268300">
<ele>125.700005</ele>
<time>2021-07-21T10:37:03.905Z</time>
</trkpt>
<trkpt lat="31.8228700" lon="34.9261800">
<ele>117.910004</ele>
<time>2021-07-21T10:37:03.905Z</time>
</trkpt>
<trkpt lat="31.8228200" lon="34.9261100">
<ele>117.549995</ele>
<time>2021-07-21T10:37:03.905Z</time>
</trkpt>
<trkpt lat="31.8226700" lon="34.9258900">
<ele>120.680000</ele>
<time>2021-07-21T10:37:03.905Z</time>
</trkpt>
<trkpt lat="31.8223900" lon="34.9255100">
<ele>121.420006</ele>
<time>2021-07-21T10:37:03.905Z</time>
</trkpt>
<trkpt lat="31.8220500" lon="34.9250800">
<ele>122.470001</ele>
<time>2021-07-21T10:37:03.905Z</time>
</trkpt>
<trkpt lat="31.8218500" lon="34.9247300">
<ele>120.729996</ele>
<time>2021-07-21T10:37:03.905Z</time>
</trkpt>
<trkpt lat="31.8218500" lon="34.9246300">
<ele>120.899994</ele>
<time>2021-07-21T10:37:03.906Z</time>
</trkpt>
<trkpt lat="31.8218500" lon="34.9245600">
<ele>121.070000</ele>
<time>2021-07-21T10:37:03.906Z</time>
</trkpt>
<trkpt lat="31.8218700" lon="34.9243600">
<ele>123.010002</ele>
<time>2021-07-21T10:37:03.906Z</time>
</trkpt>
<trkpt lat="31.8218300" lon="34.9242800">
<ele>124.719994</ele>
<time>2021-07-21T10:37:03.906Z</time>
</trkpt>
<trkpt lat="31.8216200" lon="34.9238500">
<ele>129.860001</ele>
<time>2021-07-21T10:37:03.906Z</time>
</trkpt>
<trkpt lat="31.8215500" lon="34.9236700">
<ele>129.909988</ele>
<time>2021-07-21T10:37:03.906Z</time>
</trkpt>
<trkpt lat="31.8215200" lon="34.9234300">
<ele>130.649994</ele>
<time>2021-07-21T10:37:03.906Z</time>
</trkpt>
<trkpt lat="31.8211800" lon="34.9228400">
<ele>133.259995</ele>
<time>2021-07-21T10:37:03.906Z</time>
</trkpt>
<trkpt lat="31.8204900" lon="34.9217500">
<ele>131.050003</ele>
<time>2021-07-21T10:37:03.906Z</time>
</trkpt>
<trkpt lat="31.8200300" lon="34.9210000">
<ele>131.099991</ele>
<time>2021-07-21T10:37:03.906Z</time>
</trkpt>
<trkpt lat="31.8194900" lon="34.9202500">
<ele>135.389999</ele>
<time>2021-07-21T10:37:03.906Z</time>
</trkpt>
<trkpt lat="31.8190000" lon="34.9196200">
<ele>131.259995</ele>
<time>2021-07-21T10:37:03.906Z</time>
</trkpt>
<trkpt lat="31.8185600" lon="34.9191500">
<ele>131.949997</ele>
<time>2021-07-21T10:37:03.906Z</time>
</trkpt>
<trkpt lat="31.8181100" lon="34.9188600">
<ele>120.769997</ele>
<time>2021-07-21T10:37:03.906Z</time>
</trkpt>
<trkpt lat="31.8178100" lon="34.9187400">
<ele>116.080002</ele>
<time>2021-07-21T10:37:03.906Z</time>
</trkpt>
<trkpt lat="31.8182400" lon="34.9186000">
<ele>116.260002</ele>
<time>2021-07-21T10:37:03.906Z</time>
</trkpt>
<trkpt lat="31.8185000" lon="34.9185400">
<ele>117.529999</ele>
<time>2021-07-21T10:37:03.906Z</time>
</trkpt>
<trkpt lat="31.8186600" lon="34.9184700">
<ele>118.000000</ele>
<time>2021-07-21T10:37:03.906Z</time>
</trkpt>
<trkpt lat="31.8187000" lon="34.9184600">
<ele>118.299995</ele>
<time>2021-07-21T10:37:03.906Z</time>
</trkpt>
<trkpt lat="31.8188500" lon="34.9183400">
<ele>117.830002</ele>
<time>2021-07-21T10:37:03.906Z</time>
</trkpt>
<trkpt lat="31.8191300" lon="34.9181200">
<ele>118.870003</ele>
<time>2021-07-21T10:37:03.906Z</time>
</trkpt>
<trkpt lat="31.8193300" lon="34.9179800">
<ele>118.729996</ele>
<time>2021-07-21T10:37:03.906Z</time>
</trkpt>
<trkpt lat="31.8194100" lon="34.9179000">
<ele>119.110001</ele>
<time>2021-07-21T10:37:03.906Z</time>
</trkpt>
<trkpt lat="31.8195900" lon="34.9178700">
<ele>120.559998</ele>
<time>2021-07-21T10:37:03.906Z</time>
</trkpt>
<trkpt lat="31.8197200" lon="34.9178100">
<ele>122.510002</ele>
<time>2021-07-21T10:37:03.906Z</time>
</trkpt>
<trkpt lat="31.8197900" lon="34.9177500">
<ele>122.930000</ele>
<time>2021-07-21T10:37:03.906Z</time>
</trkpt>
<trkpt lat="31.8198400" lon="34.9176800">
<ele>123.380005</ele>
<time>2021-07-21T10:37:03.906Z</time>
</trkpt>
<trkpt lat="31.8198700" lon="34.9175800">
<ele>124.320000</ele>
<time>2021-07-21T10:37:03.907Z</time>
</trkpt>
<trkpt lat="31.8198800" lon="34.9173000">
<ele>126.580002</ele>
<time>2021-07-21T10:37:03.907Z</time>
</trkpt>
<trkpt lat="31.8199200" lon="34.9171400">
<ele>127.510002</ele>
<time>2021-07-21T10:37:03.907Z</time>
</trkpt>
<trkpt lat="31.8199700" lon="34.9170400">
<ele>127.849998</ele>
<time>2021-07-21T10:37:03.907Z</time>
</trkpt>
<trkpt lat="31.8203300" lon="34.9169100">
<ele>125.080002</ele>
<time>2021-07-21T10:37:03.907Z</time>
</trkpt>
<trkpt lat="31.8209200" lon="34.9165900">
<ele>120.919998</ele>
<time>2021-07-21T10:37:03.907Z</time>
</trkpt>
<trkpt lat="31.8209800" lon="34.9165400">
<ele>120.879997</ele>
<time>2021-07-21T10:37:03.907Z</time>
</trkpt>
<trkpt lat="31.8210300" lon="34.9164300">
<ele>119.459999</ele>
<time>2021-07-21T10:37:03.907Z</time>
</trkpt>
<trkpt lat="31.8210700" lon="34.9162800">
<ele>118.210007</ele>
<time>2021-07-21T10:37:03.907Z</time>
</trkpt>
<trkpt lat="31.8211300" lon="34.9161600">
<ele>117.879997</ele>
<time>2021-07-21T10:37:03.907Z</time>
</trkpt>
<trkpt lat="31.8212100" lon="34.9160700">
<ele>116.589996</ele>
<time>2021-07-21T10:37:03.907Z</time>
</trkpt>
<trkpt lat="31.8213300" lon="34.9159800">
<ele>114.959999</ele>
<time>2021-07-21T10:37:03.907Z</time>
</trkpt>
<trkpt lat="31.8214300" lon="34.9159200">
<ele>114.760002</ele>
<time>2021-07-21T10:37:03.907Z</time>
</trkpt>
<trkpt lat="31.8215000" lon="34.9159300">
<ele>115.549995</ele>
<time>2021-07-21T10:37:03.907Z</time>
</trkpt>
<trkpt lat="31.8214600" lon="34.9157300">
<ele>115.320000</ele>
<time>2021-07-21T10:37:03.907Z</time>
</trkpt>
<trkpt lat="31.8214600" lon="34.9156300">
<ele>115.860001</ele>
<time>2021-07-21T10:37:03.907Z</time>
</trkpt>
<trkpt lat="31.8214600" lon="34.9154900">
<ele>116.900002</ele>
<time>2021-07-21T10:37:03.907Z</time>
</trkpt>
<trkpt lat="31.8214300" lon="34.9154100">
<ele>117.639999</ele>
<time>2021-07-21T10:37:03.907Z</time>
</trkpt>
<trkpt lat="31.8213900" lon="34.9153600">
<ele>118.110001</ele>
<time>2021-07-21T10:37:03.907Z</time>
</trkpt>
<trkpt lat="31.8213900" lon="34.9153600">
<ele>118.110001</ele>
<time>2021-07-21T10:37:03.907Z</time>
</trkpt>
</trkseg>
</trk>
</gpx>
